M I D A S
Marine Information and Data Acquisition System
Tripno 2010 of the Zeeleeuw from 2010-10-12 08:21:20 to 2010-10-12 16:04:30
Back to CruiseResearch ActivitiesStationsMapUnderway DataData graphs

EquipmentUnitsComment
TimeDGPSUTC
LatitudeDGPSDM.mWGS84
LongitudeDGPSDM.mWGS84
TemperatureSBE03/SBE38deg celciusITS90
ConductivitySBE21S/mITS90
SalinitySBE21 Practical Salinity Units
ChlorophylAChelsea fluorimeterg/lCalibrated in Aceton
Missing or incorrect values are displayed as -999
Sea surface data collected by the RV Zeeleeuw from 2010-10-12 07:04:29 to 2010-10-13 10:25:50
                                                                                    Next 1000 lines
Time Latitude Longitude Temperature Conductivity Salinity ChlorophylA
2010-10-12 07:04:39 51°13.662 2°55.961 21.1375 0.018252 0.097936 -0.617504
2010-10-12 07:04:43 51°13.662 2°55.961 21.1342 0.018044 0.096852 -0.58268
2010-10-12 07:04:49 51°13.662 2°55.96 21.1356 0.01794 0.09631 -0.58268
2010-10-12 07:04:54 51°13.662 2°55.961 21.1357 0.018044 0.096851 -0.58268
2010-10-12 07:04:59 51°13.662 2°55.961 21.138 0.018044 0.096853 -0.617504
2010-10-12 07:05:04 51°13.662 2°55.961 21.1537 0.018044 0.096853 -0.617504
2010-10-12 07:05:09 51°13.662 2°55.961 21.138 0.017836 0.095766 -0.617504
2010-10-12 07:05:14 51°13.662 2°55.961 21.1458 0.01794 0.09631 -0.617504
2010-10-12 07:05:19 51°13.662 2°55.961 21.1506 0.018044 0.096855 -0.617504
2010-10-12 07:05:23 51°13.662 2°55.96 21.1497 0.018044 0.096857 -0.617504
2010-10-12 07:05:29 51°13.662 2°55.961 21.1493 0.018044 0.096857 -0.617504
2010-10-12 07:05:34 51°13.662 2°55.961 21.1449 0.018044 0.096857 -0.617504
2010-10-12 07:05:39 51°13.662 2°55.961 21.1352 0.018044 0.09686 -0.58268
2010-10-12 07:05:43 51°13.662 2°55.961 21.1342 0.01794 0.096317 -0.58268
2010-10-12 07:05:49 51°13.662 2°55.961 21.1292 0.018044 0.096859 -0.58268
2010-10-12 07:05:54 51°13.662 2°55.961 21.1304 0.01794 0.096316 -0.58268
2010-10-12 07:05:59 51°13.662 2°55.961 21.1302 0.01794 0.096317 -0.617504
2010-10-12 07:06:03 51°13.662 2°55.961 21.1305 0.01794 0.096317 -0.617504
2010-10-12 07:06:08 51°13.662 2°55.961 21.1279 0.018044 0.09686 -0.617504
2010-10-12 07:06:14 51°13.662 2°55.961 21.1174 0.01794 0.096317 -0.617504
2010-10-12 07:06:19 51°13.662 2°55.961 21.1257 0.018148 0.097402 -0.58268
2010-10-12 07:06:23 51°13.662 2°55.961 21.1269 0.018044 0.096859 -0.617504
2010-10-12 07:06:28 51°13.662 2°55.961 21.131 0.018044 0.09686 -0.58268
2010-10-12 07:06:34 51°13.662 2°55.961 21.1492 0.018044 0.09686 -0.58268
2010-10-12 07:06:39 51°13.662 2°55.961 21.161 0.018044 0.096864 -0.58268
2010-10-12 07:06:43 51°13.662 2°55.961 21.1414 0.018044 0.096865 -0.58268
2010-10-12 07:06:49 51°13.662 2°55.961 21.132 0.01794 0.096322 -0.617504
2010-10-12 07:06:54 51°13.662 2°55.961 21.1275 0.018044 0.096864 -0.58268
2010-10-12 07:06:59 51°13.662 2°55.961 21.1254 0.01794 0.096321 -0.617504
2010-10-12 07:07:03 51°13.662 2°55.961 21.1245 0.01794 0.096321 -0.617504
2010-10-12 07:07:08 51°13.662 2°55.961 21.127 0.01794 0.096318 -0.58268
2010-10-12 07:07:14 51°13.662 2°55.961 21.1304 0.01794 0.096319 -0.58268
2010-10-12 07:07:19 51°13.662 2°55.961 21.1315 0.018044 0.096864 -0.58268
2010-10-12 07:07:24 51°13.662 2°55.961 21.1355 0.018044 0.096864 -0.58268
2010-10-12 07:07:29 51°13.662 2°55.961 21.1359 0.01794 0.096322 -0.617504
2010-10-12 07:07:34 51°13.662 2°55.961 21.1368 0.01794 0.096322 -0.617504
2010-10-12 07:07:39 51°13.662 2°55.961 21.1371 0.01794 0.096323 -0.617504
2010-10-12 07:07:43 51°13.662 2°55.961 21.1367 0.018044 0.096867 -0.617504
2010-10-12 07:07:49 51°13.662 2°55.96 21.1382 0.018044 0.096867 -0.617504
2010-10-12 07:07:53 51°13.662 2°55.96 21.1415 0.018044 0.096869 -0.617504
2010-10-12 07:07:59 51°13.662 2°55.961 21.1475 0.018148 0.097415 -0.58268
2010-10-12 07:08:04 51°13.662 2°55.961 21.1249 0.018148 0.097415 -0.58268
2010-10-12 07:08:09 51°13.662 2°55.961 21.1152 0.018044 0.096872 -0.58268
2010-10-12 07:08:14 51°13.661 2°55.961 21.1158 0.018044 0.096869 -0.58268
2010-10-12 07:08:19 51°13.662 2°55.961 21.1188 0.01794 0.096326 -0.617504
2010-10-12 07:08:23 51°13.662 2°55.961 21.1285 0.018044 0.096868 -0.58268
2010-10-12 07:08:29 51°13.661 2°55.961 21.1321 0.01794 0.096329 -0.617504
2010-10-12 07:08:34 51°13.661 2°55.961 21.1404 0.01794 0.096329 -0.617504
2010-10-12 07:08:38 51°13.661 2°55.961 21.1449 0.01794 0.096329 -0.617504
2010-10-12 07:08:43 51°13.662 2°55.961 21.1437 0.018148 0.097417 -0.58268
2010-10-12 07:08:48 51°13.661 2°55.961 21.1438 0.018044 0.096875 -0.617504
2010-10-12 07:08:53 51°13.661 2°55.961 21.1435 0.01794 0.096333 -0.617504
2010-10-12 07:08:58 51°13.661 2°55.961 21.1429 0.01794 0.096331 -0.58268
2010-10-12 07:09:03 51°13.662 2°55.961 21.1441 0.01794 0.096331 -0.58268
2010-10-12 07:09:08 51°13.662 2°55.961 21.145 0.018044 0.096876 -0.58268
2010-10-12 07:09:13 51°13.662 2°55.961 21.1456 0.018044 0.096879 -0.617504
2010-10-12 07:09:18 51°13.662 2°55.961 21.146 0.018044 0.096879 -0.617504
2010-10-12 07:09:23 51°13.662 2°55.961 21.1462 0.018044 0.096879 -0.617504
2010-10-12 07:09:28 51°13.661 2°55.961 21.1452 0.018044 0.096879 -0.617504
2010-10-12 07:09:33 51°13.662 2°55.961 21.1393 0.018044 0.096879 -0.617504
2010-10-12 07:09:38 51°13.662 2°55.961 21.137 0.018044 0.09688 -0.58268
2010-10-12 07:09:43 51°13.662 2°55.961 21.1385 0.018044 0.096881 -0.617504
2010-10-12 07:09:48 51°13.661 2°55.961 21.1415 0.018044 0.096881 -0.617504
2010-10-12 07:09:53 51°13.661 2°55.961 21.1391 0.018044 0.09688 -0.617504
2010-10-12 07:09:58 51°13.662 2°55.961 21.1445 0.018044 0.096881 -0.617504
2010-10-12 07:10:03 51°13.662 2°55.961 21.1503 0.018044 0.096881 -0.617504
2010-10-12 07:10:08 51°13.662 2°55.961 21.1539 0.01794 0.096339 -0.652328
2010-10-12 07:10:14 51°13.662 2°55.961 21.1525 0.018044 0.096881 -0.617504
2010-10-12 07:10:19 51°13.662 2°55.961 21.1534 0.01794 0.096342 -0.617504
2010-10-12 07:10:24 51°13.662 2°55.961 21.1524 0.018044 0.096884 -0.617504
2010-10-12 07:10:29 51°13.662 2°55.96 21.1533 0.018044 0.096885 -0.58268
2010-10-12 07:10:34 51°13.662 2°55.96 21.1542 0.018044 0.096885 -0.58268
2010-10-12 07:10:38 51°13.662 2°55.96 21.1491 0.018044 0.096885 -0.617504
2010-10-12 07:10:43 51°13.662 2°55.96 21.1442 0.018044 0.096885 -0.617504
2010-10-12 07:10:49 51°13.662 2°55.96 21.142 0.018044 0.096885 -0.617504
2010-10-12 07:10:53 51°13.662 2°55.96 21.1432 0.018044 0.096887 -0.58268
2010-10-12 07:10:59 51°13.662 2°55.961 21.1457 0.018044 0.096885 -0.617504
2010-10-12 07:11:04 51°13.662 2°55.961 21.1489 0.018044 0.096885 -0.617504
2010-10-12 07:11:09 51°13.662 2°55.961 21.1506 0.018044 0.096887 -0.617504
2010-10-12 07:11:14 51°13.662 2°55.961 21.1495 0.018044 0.096887 -0.58268
2010-10-12 07:11:19 51°13.662 2°55.961 21.1483 0.018044 0.096889 -0.58268
2010-10-12 07:11:23 51°13.662 2°55.961 21.1457 0.018044 0.096889 -0.617504
2010-10-12 07:11:28 51°13.662 2°55.961 21.1434 0.018044 0.096891 -0.617504
2010-10-12 07:11:33 51°13.662 2°55.961 21.1441 0.018044 0.096891 -0.617504
2010-10-12 07:11:39 51°13.662 2°55.96 21.1444 0.018044 0.096889 -0.58268
2010-10-12 07:11:43 51°13.662 2°55.961 21.1431 0.018044 0.096891 -0.58268
2010-10-12 07:11:48 51°13.662 2°55.96 21.1395 0.018044 0.096891 -0.617504
2010-10-12 07:11:53 51°13.662 2°55.96 21.146 0.018044 0.096892 -0.617504
2010-10-12 07:11:58 51°13.662 2°55.96 21.1493 0.018044 0.096892 -0.617504
2010-10-12 07:12:03 51°13.662 2°55.96 21.1474 0.018044 0.096892 -0.617504
2010-10-12 07:12:08 51°13.662 2°55.96 21.1505 0.018044 0.096895 -0.617504
2010-10-12 07:12:12 51°13.662 2°55.96 21.1508 0.018044 0.096895 -0.617504
2010-10-12 07:12:17 51°13.662 2°55.96 21.1506 0.018044 0.096895 -0.617504
2010-10-12 07:12:22 51°13.662 2°55.96 21.1499 0.018044 0.096896 -0.617504
2010-10-12 07:12:28 51°13.662 2°55.96 21.149 0.01794 0.096354 -0.617504
2010-10-12 07:12:32 51°13.662 2°55.96 21.1471 0.01794 0.096354 -0.617504
2010-10-12 07:12:37 51°13.662 2°55.96 21.1435 0.018044 0.096897 -0.617504
2010-10-12 07:12:42 51°13.662 2°55.96 21.1434 0.018044 0.096897 -0.617504
2010-10-12 07:12:47 51°13.662 2°55.961 21.143 0.018044 0.096899 -0.617504
2010-10-12 07:12:52 51°13.662 2°55.961 21.1439 0.018044 0.096899 -0.58268
2010-10-12 07:12:56 51°13.662 2°55.961 21.1455 0.018044 0.0969 -0.617504
2010-10-12 07:13:01 51°13.662 2°55.961 21.144 0.018044 0.0969 -0.617504
2010-10-12 07:13:07 51°13.662 2°55.961 21.1456 0.018044 0.0969 -0.617504
2010-10-12 07:13:12 51°13.662 2°55.961 21.1459 0.018044 0.096901 -0.617504
2010-10-12 07:13:16 51°13.662 2°55.961 21.147 0.018044 0.096903 -0.617504
2010-10-12 07:13:21 51°13.662 2°55.961 21.1453 0.018044 0.096903 -0.617504
2010-10-12 07:13:26 51°13.662 2°55.961 21.1437 0.018044 0.096904 -0.58268
2010-10-12 07:13:31 51°13.662 2°55.961 21.1454 0.018044 0.096904 -0.58268
2010-10-12 07:13:36 51°13.662 2°55.961 21.1465 0.018044 0.096905 -0.58268
2010-10-12 07:13:41 51°13.662 2°55.961 21.1478 0.018044 0.096907 -0.58268
2010-10-12 07:13:46 51°13.662 2°55.961 21.1475 0.018044 0.096907 -0.617504
2010-10-12 07:13:51 51°13.662 2°55.961 21.149 0.018044 0.096908 -0.617504
2010-10-12 07:13:56 51°13.662 2°55.96 21.1477 0.018044 0.096909 -0.617504
2010-10-12 07:14:00 51°13.662 2°55.96 21.1479 0.018044 0.096909 -0.617504
2010-10-12 07:14:05 51°13.662 2°55.961 21.1487 0.018044 0.096909 -0.617504
2010-10-12 07:14:10 51°13.662 2°55.961 21.1507 0.018044 0.096909 -0.617504
2010-10-12 07:14:16 51°13.662 2°55.96 21.1495 0.01794 0.096368 -0.617504
2010-10-12 07:14:20 51°13.662 2°55.961 19.9413 0.018044 0.096911 -0.617504
2010-10-12 07:14:25 51°13.662 2°55.961 18.6658 0.026364 0.141205 -0.58268
2010-10-12 07:14:30 51°13.662 2°55.961 18.2491 0.026364 0.141205 -0.58268
2010-10-12 07:14:35 51°13.662 2°55.961 17.9699 0.06329 0.34739 -0.513031
2010-10-12 07:14:40 51°13.662 2°55.961 17.7601 1.873798 12.60932 -0.478207
2010-10-12 07:14:45 51°13.662 2°55.961 17.6302 3.542809 24.716261 0.113802
2010-10-12 07:14:49 51°13.662 2°55.961 17.5475 3.762662 26.245149 -0.025495
2010-10-12 07:14:55 51°13.662 2°55.961 17.4729 3.775213 26.3798 -0.269263
2010-10-12 07:15:00 51°13.662 2°55.961 17.4584 3.775213 26.3798 -0.269263
2010-10-12 07:15:05 51°13.662 2°55.961 17.4529 3.850839 27.206918 -0.304087
2010-10-12 07:15:09 51°13.662 2°55.961 17.4346 3.879642 27.843446 -0.304087
2010-10-12 07:15:15 51°13.662 2°55.961 17.3999 3.866676 28.15743 -0.304087
2010-10-12 07:15:20 51°13.662 2°55.96 17.3646 3.780406 27.732415 -0.304087
2010-10-12 07:15:25 51°13.662 2°55.96 17.3601 3.721668 27.493332 -0.269263
2010-10-12 07:15:30 51°13.662 2°55.96 17.3394 3.721668 27.493332 -0.269263
2010-10-12 07:15:35 51°13.662 2°55.96 17.3469 3.705747 27.520311 -0.269263
2010-10-12 07:15:40 51°13.663 2°55.96 17.3431 3.665466 27.277254 -0.269263
2010-10-12 07:15:44 51°13.662 2°55.96 17.3482 3.647119 27.181755 -0.304087
2010-10-12 07:15:50 51°13.662 2°55.96 17.3465 3.640688 27.168195 -0.304087
2010-10-12 07:15:55 51°13.662 2°55.96 17.3136 3.634783 27.160926 -0.304087
2010-10-12 07:16:00 51°13.662 2°55.96 17.2927 3.634783 27.160926 -0.304087
2010-10-12 07:16:04 51°13.663 2°55.96 17.2689 3.63141 27.171262 -0.234439
2010-10-12 07:16:09 51°13.662 2°55.96 17.2514 3.629407 27.177951 -0.269263
2010-10-12 07:16:15 51°13.663 2°55.96 17.2424 3.62772 27.180472 -0.269263
2010-10-12 07:16:20 51°13.662 2°55.96 17.2294 3.629091 27.202577 -0.234439
2010-10-12 07:16:25 51°13.663 2°55.961 17.1783 3.630778 27.218553 -0.304087
2010-10-12 07:16:29 51°13.662 2°55.961 17.1137 3.630778 27.218553 -0.304087
2010-10-12 07:16:35 51°13.662 2°55.961 17.0572 3.632149 27.241662 -0.304087
2010-10-12 07:16:40 51°13.662 2°55.961 17.0406 3.630568 27.241199 -0.304087
2010-10-12 07:16:44 51°13.663 2°55.961 16.9559 3.632782 27.283602 -0.269263
2010-10-12 07:16:50 51°13.662 2°55.961 16.8738 3.635208 27.314593 -0.269263
2010-10-12 07:16:55 51°13.662 2°55.961 16.8083 3.637001 27.343284 -0.304087
2010-10-12 07:17:00 51°13.662 2°55.961 16.7547 3.637001 27.343284 -0.304087
2010-10-12 07:17:04 51°13.663 2°55.961 16.6938 3.640481 27.390025 -0.269263
2010-10-12 07:17:10 51°13.662 2°55.961 16.6207 3.641957 27.428493 -0.269263
2010-10-12 07:17:15 51°13.662 2°55.961 16.5583 3.645016 27.492659 -0.304087
2010-10-12 07:17:20 51°13.663 2°55.961 16.4832 3.646071 27.547198 -0.269263
2010-10-12 07:17:24 51°13.663 2°55.961 16.4764 3.648286 27.595186 -0.269263
2010-10-12 07:17:30 51°13.663 2°55.961 16.4283 3.648286 27.595186 -0.269263
2010-10-12 07:17:35 51°13.663 2°55.961 16.3463 3.64892 27.650537 -0.269263
2010-10-12 07:17:40 51°13.663 2°55.961 16.286 3.650186 27.706403 -0.234439
2010-10-12 07:17:44 51°13.663 2°55.961 16.262 3.652823 27.783137 -0.269263
2010-10-12 07:17:50 51°13.663 2°55.961 16.2172 3.654722 27.857007 -0.234439
2010-10-12 07:17:55 51°13.663 2°55.96 16.186 3.656199 27.910267 -0.234439
2010-10-12 07:18:00 51°13.663 2°55.961 16.2195 3.656199 27.910267 -0.234439
2010-10-12 07:18:04 51°13.663 2°55.961 16.1469 3.657254 27.96268 -0.234439
2010-10-12 07:18:10 51°13.663 2°55.961 16.0874 3.657466 28.015302 -0.234439
2010-10-12 07:18:15 51°13.663 2°55.961 16.0839 3.657467 28.063238 -0.199615
2010-10-12 07:18:20 51°13.663 2°55.961 16.0764 3.658522 28.117239 -0.164791
2010-10-12 07:18:24 51°13.663 2°55.961 16.0562 3.658628 28.150321 -0.199615
2010-10-12 07:18:29 51°13.663 2°55.961 16.0287 3.658628 28.150321 -0.199615
2010-10-12 07:18:35 51°13.663 2°55.961 15.995 3.658312 28.182484 -0.199615
2010-10-12 07:18:40 51°13.663 2°55.961 15.9984 3.657891 28.210699 -0.164791
2010-10-12 07:18:44 51°13.663 2°55.961 15.9377 3.657575 28.237794 -0.199615
2010-10-12 07:18:50 51°13.663 2°55.961 15.9362 3.658103 28.273238 -0.164791
2010-10-12 07:18:55 51°13.663 2°55.96 15.9263 3.658736 28.300205 -0.199615
2010-10-12 07:19:00 51°13.663 2°55.96 15.919 3.658736 28.300205 -0.199615
2010-10-12 07:19:04 51°13.663 2°55.96 15.9133 3.658209 28.319883 -0.164791
2010-10-12 07:19:10 51°13.663 2°55.96 15.8817 3.657999 28.337571 -0.164791
2010-10-12 07:19:15 51°13.663 2°55.96 15.8543 3.658315 28.362465 -0.164791
2010-10-12 07:19:20 51°13.663 2°55.96 15.8271 3.658316 28.376211 -0.199615
2010-10-12 07:19:24 51°13.663 2°55.96 15.831 3.658421 28.399885 -0.164791
2010-10-12 07:19:30 51°13.663 2°55.96 15.8291 3.658421 28.399885 -0.164791
2010-10-12 07:19:35 51°13.662 2°55.96 15.8237 3.658422 28.416853 -0.164791
2010-10-12 07:19:40 51°13.662 2°55.961 15.8149 3.658211 28.424588 -0.199615
2010-10-12 07:19:45 51°13.662 2°55.961 15.8074 3.658106 28.436427 -0.199615
2010-10-12 07:19:50 51°13.662 2°55.96 15.801 3.658106 28.448656 -0.164791
2010-10-12 07:19:55 51°13.662 2°55.961 15.7926 3.658528 28.47786 -0.129967
2010-10-12 07:20:00 51°13.662 2°55.961 15.7759 3.658528 28.47786 -0.129967
2010-10-12 07:20:04 51°13.662 2°55.961 15.759 3.658212 28.491661 -0.164791
2010-10-12 07:20:10 51°13.662 2°55.961 15.7413 3.65758 28.496333 -0.164791
2010-10-12 07:20:15 51°13.662 2°55.961 15.7305 3.657263 28.503212 -0.129967
2010-10-12 07:20:20 51°13.662 2°55.961 15.727 3.657369 28.510004 -0.164791
2010-10-12 07:20:24 51°13.662 2°55.961 15.7087 3.657158 28.513526 -0.164791
2010-10-12 07:20:30 51°13.662 2°55.961 15.7062 3.657158 28.513526 -0.164791
2010-10-12 07:20:35 51°13.662 2°55.961 15.7281 3.657475 28.524289 -0.164791
2010-10-12 07:20:40 51°13.662 2°55.961 15.7108 3.657264 28.530493 -0.129967
2010-10-12 07:20:45 51°13.662 2°55.961 15.7069 3.657053 28.542059 -0.129967
2010-10-12 07:20:49 51°13.662 2°55.961 15.6932 3.656632 28.55181 -0.164791
2010-10-12 07:20:55 51°13.662 2°55.961 15.696 3.655261 28.550121 -0.164791
2010-10-12 07:21:00 51°13.662 2°55.96 15.6985 3.655261 28.550121 -0.164791
2010-10-12 07:21:05 51°13.662 2°55.96 15.7018 3.655261 28.55871 -0.129967
2010-10-12 07:21:09 51°13.662 2°55.96 15.6859 3.654945 28.564561 -0.129967
2010-10-12 07:21:15 51°13.662 2°55.96 15.6781 3.654734 28.567567 -0.129967
2010-10-12 07:21:20 51°13.662 2°55.96 15.6705 3.65505 28.573538 -0.129967
2010-10-12 07:21:25 51°13.662 2°55.96 15.6731 3.655261 28.581822 -0.129967
2010-10-12 07:21:29 51°13.662 2°55.96 15.6767 3.655261 28.581822 -0.129967
2010-10-12 07:21:35 51°13.662 2°55.961 15.6693 3.655472 28.587419 -0.164791
2010-10-12 07:21:40 51°13.662 2°55.961 15.6731 3.655472 28.59011 -0.164791
2010-10-12 07:21:45 51°13.662 2°55.96 15.6633 3.655262 28.590971 -0.129967
2010-10-12 07:21:50 51°13.662 2°55.96 15.6588 3.655473 28.598187 -0.129967
2010-10-12 07:21:55 51°13.662 2°55.961 15.6451 3.655684 28.605944 -0.129967
2010-10-12 07:22:00 51°13.662 2°55.961 15.6433 3.655684 28.605944 -0.129967
2010-10-12 07:22:05 51°13.662 2°55.961 15.6437 3.655156 28.605676 -0.164791
2010-10-12 07:22:10 51°13.662 2°55.96 15.6331 3.654629 28.602173 -0.164791
2010-10-12 07:22:15 51°13.662 2°55.961 15.6338 3.654735 28.603628 -0.129967
2010-10-12 07:22:20 51°13.662 2°55.96 15.6324 3.654946 28.609773 -0.129967
2010-10-12 07:22:24 51°13.662 2°55.96 15.636 3.654946 28.613548 -0.129967
2010-10-12 07:22:30 51°13.662 2°55.961 15.6324 3.654946 28.613548 -0.129967
2010-10-12 07:22:35 51°13.662 2°55.961 15.635 3.65484 28.617486 -0.129967
2010-10-12 07:22:40 51°13.662 2°55.961 15.629 3.654735 28.621966 -0.129967
2010-10-12 07:22:44 51°13.662 2°55.96 15.6237 3.653997 28.618787 -0.164791
2010-10-12 07:22:50 51°13.662 2°55.96 15.6213 3.653891 28.622188 -0.129967
2010-10-12 07:22:55 51°13.662 2°55.96 15.6162 3.653997 28.626885 -0.129967
2010-10-12 07:23:00 51°13.662 2°55.96 15.61 3.653997 28.626885 -0.129967
2010-10-12 07:23:04 51°13.662 2°55.961 15.6141 3.653153 28.621708 -0.164791
2010-10-12 07:23:09 51°13.662 2°55.96 15.6176 3.653048 28.621871 -0.129967
2010-10-12 07:23:15 51°13.662 2°55.96 15.6104 3.652943 28.622574 -0.164791
2010-10-12 07:23:20 51°13.662 2°55.96 15.6136 3.653048 28.625112 -0.129967
2010-10-12 07:23:24 51°13.662 2°55.96 15.6127 3.653364 28.630565 -0.129967
2010-10-12 07:23:29 51°13.662 2°55.96 15.6029 3.653364 28.630565 -0.129967
2010-10-12 07:23:35 51°13.662 2°55.96 15.6079 3.653154 28.631973 -0.129967
2010-10-12 07:23:40 51°13.662 2°55.96 15.6099 3.652943 28.63284 -0.164791
2010-10-12 07:23:44 51°13.662 2°55.96 15.5984 3.653681 28.640885 -0.164791
2010-10-12 07:23:49 51°13.662 2°55.961 15.594 3.653365 28.640295 -0.129967
2010-10-12 07:23:55 51°13.662 2°55.96 15.6019 3.65347 28.643916 -0.164791
2010-10-12 07:24:00 51°13.662 2°55.96 15.5979 3.65347 28.643916 -0.164791
2010-10-12 07:24:04 51°13.662 2°55.96 15.587 3.652837 28.640573 -0.129967
2010-10-12 07:24:10 51°13.662 2°55.96 15.5829 3.653681 28.648457 -0.199615
2010-10-12 07:24:15 51°13.662 2°55.96 15.5786 3.653997 28.653375 -0.129967
2010-10-12 07:24:20 51°13.662 2°55.96 15.5792 3.654103 28.655375 -0.129967
2010-10-12 07:24:24 51°13.662 2°55.96 15.5855 3.654103 28.65754 -0.129967
2010-10-12 07:24:30 51°13.662 2°55.96 15.5772 3.654103 28.65754 -0.129967
2010-10-12 07:24:35 51°13.662 2°55.96 15.5758 3.654419 28.660294 -0.129967
2010-10-12 07:24:40 51°13.662 2°55.96 15.5698 3.65463 28.664296 -0.129967
2010-10-12 07:24:44 51°13.662 2°55.96 15.5713 3.655052 28.670677 -0.129967
2010-10-12 07:24:50 51°13.662 2°55.959 15.5691 3.655158 28.676471 -0.129967
2010-10-12 07:24:55 51°13.662 2°55.959 15.5675 3.655369 28.682102 -0.129967
2010-10-12 07:25:00 51°13.662 2°55.959 15.5637 3.655369 28.682102 -0.129967
2010-10-12 07:25:04 51°13.662 2°55.959 15.5662 3.655579 28.685023 -0.164791
2010-10-12 07:25:10 51°13.662 2°55.959 15.5623 3.656212 28.692704 -0.129967
2010-10-12 07:25:15 51°13.662 2°55.959 15.561 3.657478 28.704271 -0.129967
2010-10-12 07:25:20 51°13.662 2°55.959 15.5489 3.659059 28.722396 -0.129967
2010-10-12 07:25:25 51°13.662 2°55.959 15.5466 3.660747 28.738186 -0.129967
2010-10-12 07:25:29 51°13.662 2°55.959 15.5462 3.660747 28.738186 -0.129967
2010-10-12 07:25:35 51°13.662 2°55.959 15.5361 3.663067 28.761125 -0.095143
2010-10-12 07:25:40 51°13.662 2°55.959 15.5414 3.665597 28.785909 -0.095143
2010-10-12 07:25:45 51°13.662 2°55.959 15.5387 3.668023 28.808147 -0.129967
2010-10-12 07:25:49 51°13.662 2°55.959 15.5368 3.670659 28.831682 -0.129967
2010-10-12 07:25:55 51°13.662 2°55.959 15.5346 3.673401 28.858869 -0.129967
2010-10-12 07:26:00 51°13.662 2°55.959 15.5295 3.673401 28.858869 -0.129967
2010-10-12 07:26:05 51°13.662 2°55.959 15.5261 3.676143 28.886613 -0.095143
2010-10-12 07:26:10 51°13.662 2°55.959 15.5344 3.678779 28.912352 -0.095143
2010-10-12 07:26:15 51°13.662 2°55.959 15.5253 3.682997 28.951906 -0.095143
2010-10-12 07:26:20 51°13.662 2°55.959 15.5255 3.686583 28.986499 -0.095143
2010-10-12 07:26:25 51°13.662 2°55.959 15.5302 3.69059 29.025338 -0.129967
2010-10-12 07:26:30 51°13.662 2°55.959 15.5215 3.69059 29.025338 -0.129967
2010-10-12 07:26:35 51°13.662 2°55.959 15.5156 3.693648 29.053151 -0.060319
2010-10-12 07:26:40 51°13.662 2°55.959 15.5164 3.696706 29.08152 -0.129967
2010-10-12 07:26:45 51°13.662 2°55.959 15.5191 3.699237 29.106942 -0.095143
2010-10-12 07:26:50 51°13.662 2°55.959 15.5082 3.701241 29.125556 -0.095143
2010-10-12 07:26:55 51°13.662 2°55.96 15.5086 3.702717 29.140116 -0.129967
2010-10-12 07:27:00 51°13.662 2°55.96 15.5041 3.702717 29.140116 -0.129967
2010-10-12 07:27:04 51°13.662 2°55.96 15.5011 3.704194 29.153022 -0.095143
2010-10-12 07:27:10 51°13.662 2°55.961 15.5006 3.706725 29.177359 -0.060319
2010-10-12 07:27:15 51°13.662 2°55.961 15.4985 3.709678 29.206498 -0.060319
2010-10-12 07:27:20 51°13.662 2°55.961 15.4976 3.712314 29.23011 -0.060319
2010-10-12 07:27:24 51°13.662 2°55.961 15.4895 3.714107 29.2469 -0.129967
2010-10-12 07:27:29 51°13.662 2°55.961 15.489 3.714107 29.2469 -0.129967
2010-10-12 07:27:35 51°13.662 2°55.961 15.4865 3.716005 29.266278 -0.095143
2010-10-12 07:27:40 51°13.662 2°55.961 15.4965 3.718114 29.288062 -0.095143
2010-10-12 07:27:44 51°13.662 2°55.961 15.4926 3.719696 29.304682 -0.095143
2010-10-12 07:27:49 51°13.662 2°55.961 15.4813 3.698078 29.118309 -0.095143
2010-10-12 07:27:55 51°13.662 2°55.96 15.4832 3.72286 29.336823 -0.095143
2010-10-12 07:28:00 51°13.662 2°55.96 15.486 3.72286 29.336823 -0.095143
2010-10-12 07:28:05 51°13.662 2°55.96 15.4885 3.703561 29.170695 -0.095143
2010-10-12 07:28:09 51°13.662 2°55.96 15.4958 3.725918 29.368611 -0.060319
2010-10-12 07:28:15 51°13.661 2°55.96 15.493 3.727289 29.382289 -0.060319
2010-10-12 07:28:20 51°13.661 2°55.96 15.4874 3.728133 29.389121 -0.060319
2010-10-12 07:28:25 51°13.661 2°55.96 15.5106 3.729504 29.403359 -0.025495
2010-10-12 07:28:30 51°13.661 2°55.96 15.5111 3.729504 29.403359 -0.025495
2010-10-12 07:28:35 51°13.661 2°55.96 15.5151 3.731824 29.425916 -0.095143
2010-10-12 07:28:40 51°13.661 2°55.96 15.5216 3.734144 29.448479 -0.060319
2010-10-12 07:28:45 51°13.661 2°55.959 15.5379 3.734988 29.455313 -0.060319
2010-10-12 07:28:50 51°13.661 2°55.958 15.5718 3.735621 29.458623 -0.060319
2010-10-12 07:28:55 51°13.662 2°55.956 15.5744 3.73657 29.465823 -0.060319
2010-10-12 07:29:00 51°13.662 2°55.953 15.572 3.73657 29.465823 -0.060319
2010-10-12 07:29:04 51°13.663 2°55.95 15.5614 3.731402 29.419431 -0.060319
2010-10-12 07:29:10 51°13.664 2°55.946 15.543 3.723704 29.346435 -0.095143
2010-10-12 07:29:15 51°13.665 2°55.942 15.5531 3.714529 29.261678 -0.095143
2010-10-12 07:29:21 51°13.666 2°55.936 15.5476 3.707252 29.194135 -0.060319
2010-10-12 07:29:27 51°13.668 2°55.929 15.5716 3.699976 29.118355 -0.060319
2010-10-12 07:29:32 51°13.669 2°55.924 15.5669 3.699976 29.118355 -0.060319
2010-10-12 07:29:38 51°13.671 2°55.916 15.5611 3.691539 29.034177 -0.060319
2010-10-12 07:29:43 51°13.672 2°55.909 15.553 3.687426 28.99167 -0.060319
2010-10-12 07:29:48 51°13.674 2°55.902 15.5458 3.686793 28.985597 -0.095143
2010-10-12 07:29:53 51°13.676 2°55.895 15.5376 3.688586 29.003446 0.009329
2010-10-12 07:29:59 51°13.678 2°55.886 15.5281 3.690273 29.018729 0.044153
2010-10-12 07:30:04 51°13.68 2°55.878 15.5207 3.690273 29.018729 0.044153
2010-10-12 07:30:08 51°13.681 2°55.872 15.5046 3.692593 29.036793 0.078977
2010-10-12 07:30:13 51°13.683 2°55.864 15.4912 3.695968 29.062965 0.078977
2010-10-12 07:30:18 51°13.684 2°55.857 15.4861 3.702084 29.115839 0.078977
2010-10-12 07:30:24 51°13.686 2°55.847 15.4757 3.706513 29.15674 0.078977
2010-10-12 07:30:28 51°13.687 2°55.841 15.4597 3.710626 29.198207 0.113802
2010-10-12 07:30:33 51°13.688 2°55.833 15.4565 3.710626 29.198207 0.113802
2010-10-12 07:30:38 51°13.689 2°55.826 15.4558 3.711997 29.216274 0.113802
2010-10-12 07:30:43 51°13.69 2°55.818 15.4523 3.713896 29.237855 0.113802
2010-10-12 07:30:48 51°13.691 2°55.81 15.4423 3.71263 29.236201 0.113802
2010-10-12 07:30:53 51°13.691 2°55.803 15.4433 3.709994 29.222551 0.113802
2010-10-12 07:30:58 51°13.692 2°55.795 15.4362 3.705143 29.189515 0.044153
2010-10-12 07:31:03 51°13.692 2°55.788 15.4243 3.705143 29.189515 0.044153
2010-10-12 07:31:08 51°13.693 2°55.78 15.419 3.699976 29.152039 0.044153
2010-10-12 07:31:13 51°13.694 2°55.775 15.405 3.695442 29.121748 0.078977
2010-10-12 07:31:18 51°13.694 2°55.771 15.3886 3.692278 29.097924 0.078977
2010-10-12 07:31:23 51°13.695 2°55.769 15.382 3.689958 29.081481 0.078977
2010-10-12 07:31:28 51°13.695 2°55.768 15.3705 3.685635 29.050807 0.078977
2010-10-12 07:31:33 51°13.696 2°55.768 15.3593 3.685635 29.050807 0.078977
2010-10-12 07:31:38 51°13.696 2°55.77 15.3507 3.679624 29.001501 0.044153
2010-10-12 07:31:43 51°13.697 2°55.771 15.3489 3.675511 28.971008 0.044153
2010-10-12 07:31:48 51°13.697 2°55.771 15.3468 3.670977 28.936818 0.044153
2010-10-12 07:31:53 51°13.698 2°55.771 15.3303 3.667497 28.915149 0.078977
2010-10-12 07:31:59 51°13.698 2°55.769 15.3319 3.664967 28.900682 0.044153
2010-10-12 07:32:03 51°13.698 2°55.767 15.3342 3.664967 28.900682 0.044153
2010-10-12 07:32:08 51°13.696 2°55.766 15.3297 3.661276 28.878798 0.078977
2010-10-12 07:32:13 51°13.695 2°55.762 15.3148 3.657164 28.85266 0.113802
2010-10-12 07:32:18 51°13.694 2°55.759 15.3102 3.653789 28.82859 0.113802
2010-10-12 07:32:23 51°13.692 2°55.756 15.307 3.650732 28.810575 0.044153
2010-10-12 07:32:28 51°13.691 2°55.753 15.2898 3.645143 28.767091 0.113802
2010-10-12 07:32:33 51°13.69 2°55.751 15.279 3.645143 28.767091 0.113802
2010-10-12 07:32:38 51°13.689 2°55.749 15.273 3.63502 28.68334 0.078977
2010-10-12 07:32:44 51°13.69 2°55.749 15.262 3.625108 28.601444 0.078977
2010-10-12 07:32:48 51°13.691 2°55.749 15.2571 3.615302 28.517765 0.078977
2010-10-12 07:32:53 51°13.693 2°55.749 15.2504 3.605496 28.437358 0.078977
2010-10-12 07:32:58 51°13.695 2°55.75 15.2464 3.597272 28.371877 0.078977
2010-10-12 07:33:03 51°13.698 2°55.75 15.2422 3.597272 28.371877 0.078977
2010-10-12 07:33:08 51°13.702 2°55.75 15.2366 3.588942 28.307627 0.078977
2010-10-12 07:33:13 51°13.706 2°55.749 15.2375 3.584092 28.271116 0.078977
2010-10-12 07:33:18 51°13.711 2°55.746 15.2382 3.580613 28.24767 0.113802
2010-10-12 07:33:23 51°13.716 2°55.743 15.2319 3.579242 28.243214 0.113802
2010-10-12 07:33:28 51°13.721 2°55.739 15.235 3.578715 28.245064 0.113802
2010-10-12 07:33:33 51°13.726 2°55.733 15.233 3.578715 28.245064 0.113802
2010-10-12 07:33:38 51°13.732 2°55.727 15.2305 3.578715 28.25207 0.113802
2010-10-12 07:33:43 51°13.738 2°55.72 15.2274 3.57745 28.244224 0.148626
2010-10-12 07:33:48 51°13.744 2°55.713 15.2275 3.574814 28.226527 0.113802
2010-10-12 07:33:52 51°13.749 2°55.708 15.2236 3.572389 28.209058 0.148626
2010-10-12 07:33:57 51°13.756 2°55.7 15.2276 3.567539 28.168732 0.113802
2010-10-12 07:34:02 51°13.763 2°55.693 15.2291 3.567539 28.168732 0.113802
2010-10-12 07:34:07 51°13.77 2°55.686 15.2296 3.56037 28.107561 0.148626
2010-10-12 07:34:12 51°13.778 2°55.678 15.2316 3.556996 28.079095 0.148626
2010-10-12 07:34:17 51°13.786 2°55.671 15.2439 3.555836 28.070549 0.148626
2010-10-12 07:34:22 51°13.793 2°55.664 15.2493 3.558999 28.099853 0.18345
2010-10-12 07:34:27 51°13.802 2°55.657 15.2437 3.561002 28.117395 0.18345
2010-10-12 07:34:32 51°13.81 2°55.65 15.2447 3.561002 28.117395 0.18345
2010-10-12 07:34:37 51°13.819 2°55.643 15.2464 3.559526 28.106079 0.148626
2010-10-12 07:34:41 51°13.827 2°55.637 15.2529 3.552884 28.048455 0.148626
2010-10-12 07:34:47 51°13.838 2°55.628 15.25 3.545187 27.980547 0.113802
2010-10-12 07:34:51 51°13.846 2°55.622 15.2566 3.534117 27.881021 0.148626
2010-10-12 07:34:56 51°13.856 2°55.615 15.2547 3.53981 27.928693 0.078977
2010-10-12 07:35:01 51°13.866 2°55.607 15.2463 3.53981 27.928693 0.078977
2010-10-12 07:35:06 51°13.876 2°55.599 15.2406 3.542551 27.950008 0.113802
2010-10-12 07:35:11 51°13.887 2°55.591 15.2307 3.544449 27.966077 0.148626
2010-10-12 07:35:16 51°13.897 2°55.583 15.2173 3.546663 27.983847 0.113802
2010-10-12 07:35:20 51°13.906 2°55.576 15.2106 3.549193 28.003849 0.113802
2010-10-12 07:35:26 51°13.919 2°55.566 15.2078 3.550037 28.010695 0.078977
2010-10-12 07:35:31 51°13.93 2°55.557 15.2006 3.550037 28.010695 0.078977
2010-10-12 07:35:36 51°13.941 2°55.549 15.2008 3.550142 28.010014 0.113802
2010-10-12 07:35:40 51°13.95 2°55.543 15.1956 3.547507 27.988021 0.148626
2010-10-12 07:35:45 51°13.962 2°55.534 15.1972 3.544027 27.960253 0.148626
2010-10-12 07:35:50 51°13.973 2°55.526 15.1957 3.540443 27.932627 0.148626
2010-10-12 07:35:55 51°13.985 2°55.517 15.1947 3.536753 27.907807 0.148626
2010-10-12 07:36:00 51°13.996 2°55.508 15.1962 3.536753 27.907807 0.148626
2010-10-12 07:36:05 51°14.008 2°55.5 15.1987 3.538018 27.923143 0.148626
2010-10-12 07:36:10 51°14.02 2°55.491 15.1901 3.544871 27.987935 0.18345
2010-10-12 07:36:15 51°14.032 2°55.482 15.1948 3.558261 28.109495 0.148626
2010-10-12 07:36:20 51°14.044 2°55.473 15.1913 3.573549 28.247262 0.18345
2010-10-12 07:36:24 51°14.054 2°55.466 15.1866 3.591579 28.40704 0.18345
2010-10-12 07:36:30 51°14.069 2°55.455 15.185 3.591579 28.40704 0.18345
2010-10-12 07:36:35 51°14.081 2°55.446 15.1978 3.604654 28.524531 0.148626
2010-10-12 07:36:40 51°14.093 2°55.436 15.1859 3.614144 28.60733 0.18345
2010-10-12 07:36:44 51°14.103 2°55.428 15.1772 3.618362 28.644931 0.18345
2010-10-12 07:36:50 51°14.117 2°55.416 15.1873 3.620787 28.668432 0.148626
2010-10-12 07:36:55 51°14.129 2°55.406 15.168 3.621209 28.672138 0.148626
2010-10-12 07:37:00 51°14.141 2°55.396 15.1753 3.621209 28.672138 0.148626
2010-10-12 07:37:05 51°14.153 2°55.386 15.1813 3.622263 28.68305 0.18345
2010-10-12 07:37:10 51°14.165 2°55.375 15.1525 3.626586 28.723246 0.148626
2010-10-12 07:37:15 51°14.177 2°55.364 15.1507 3.630593 28.757923 0.148626
2010-10-12 07:37:20 51°14.188 2°55.353 15.1496 3.635127 28.799444 0.18345
2010-10-12 07:37:25 51°14.2 2°55.343 15.1423 3.638185 28.827441 0.113802
2010-10-12 07:37:29 51°14.21 2°55.334 15.1459 3.638185 28.827441 0.113802
2010-10-12 07:37:35 51°14.224 2°55.32 15.1309 3.642509 28.868785 0.113802
2010-10-12 07:37:40 51°14.235 2°55.31 15.1338 3.645145 28.895297 0.113802
2010-10-12 07:37:44 51°14.244 2°55.3 15.1294 3.645883 28.902346 0.078977
2010-10-12 07:37:50 51°14.258 2°55.286 15.1327 3.646727 28.91475 0.009329
2010-10-12 07:37:55 51°14.27 2°55.275 15.1352 3.647043 28.924178 0.009329
2010-10-12 07:38:00 51°14.281 2°55.263 15.1164 3.647043 28.924178 0.009329
2010-10-12 07:38:04 51°14.291 2°55.253 15.1216 3.647781 28.935109 0.044153
2010-10-12 07:38:10 51°14.305 2°55.239 15.1259 3.648625 28.945864 0.044153
2010-10-12 07:38:15 51°14.317 2°55.227 15.1273 3.647254 28.937116 0.078977
2010-10-12 07:38:20 51°14.329 2°55.215 15.1209 3.644302 28.914987 0.044153
2010-10-12 07:38:24 51°14.338 2°55.205 15.1344 3.642931 28.904574 0.009329
2010-10-12 07:38:30 51°14.352 2°55.19 15.1273 3.642931 28.904574 0.009329
2010-10-12 07:38:35 51°14.363 2°55.178 15.1258 3.643142 28.907539 0.078977
2010-10-12 07:38:40 51°14.375 2°55.165 15.1316 3.645146 28.927959 0.044153
2010-10-12 07:38:44 51°14.385 2°55.155 15.1217 3.649785 28.972727 0.078977
2010-10-12 07:38:50 51°14.399 2°55.14 15.1272 3.655796 29.025707 0.078977
2010-10-12 07:38:55 51°14.41 2°55.126 15.1242 3.667817 29.133383 0.078977
2010-10-12 07:39:00 51°14.421 2°55.113 15.1391 3.667817 29.133383 0.078977
2010-10-12 07:39:04 51°14.431 2°55.102 15.1265 3.678995 29.230319 0.113802
2010-10-12 07:39:10 51°14.445 2°55.086 15.1343 3.693337 29.356345 0.113802
2010-10-12 07:39:15 51°14.456 2°55.073 15.1337 3.707784 29.483376 0.113802
2010-10-12 07:39:20 51°14.468 2°55.059 15.1069 3.717908 29.572265 0.148626
2010-10-12 07:39:24 51°14.478 2°55.048 15.106 3.730985 29.689574 0.148626
2010-10-12 07:39:30 51°14.492 2°55.032 15.1067 3.730985 29.689574 0.148626
2010-10-12 07:39:35 51°14.504 2°55.018 15.0992 3.740687 29.776531 0.18345
2010-10-12 07:39:40 51°14.516 2°55.004 15.1063 3.747437 29.835108 0.218274
2010-10-12 07:39:44 51°14.525 2°54.991 15.0728 3.755241 29.902459 0.253098
2010-10-12 07:39:50 51°14.538 2°54.97 15.0552 3.76062 29.949499 0.218274
2010-10-12 07:39:55 51°14.548 2°54.951 15.0484 3.767053 30.009914 0.253098
2010-10-12 07:40:00 51°14.559 2°54.933 15.0257 3.767053 30.009914 0.253098
2010-10-12 07:40:05 51°14.568 2°54.913 14.9907 3.768319 30.030336 0.253098
2010-10-12 07:40:10 51°14.575 2°54.89 14.9593 3.772221 30.065489 0.253098
2010-10-12 07:40:15 51°14.582 2°54.866 14.9643 3.772537 30.072331 0.218274
2010-10-12 07:40:20 51°14.588 2°54.842 14.9345 3.771905 30.072492 0.218274
2010-10-12 07:40:24 51°14.592 2°54.821 14.9416 3.771483 30.076833 0.218274
2010-10-12 07:40:30 51°14.598 2°54.79 14.9233 3.771483 30.076833 0.218274
2010-10-12 07:40:35 51°14.603 2°54.763 14.9243 3.771167 30.086735 0.218274
2010-10-12 07:40:40 51°14.608 2°54.737 14.9294 3.771694 30.105289 0.218274
2010-10-12 07:40:44 51°14.612 2°54.716 14.9386 3.773804 30.142546 0.253098
2010-10-12 07:40:49 51°14.613 2°54.688 14.9422 3.776968 30.189806 0.253098
2010-10-12 07:40:55 51°14.614 2°54.655 14.9551 3.781714 30.244797 0.287922
2010-10-12 07:41:00 51°14.61 2°54.628 14.9673 3.781714 30.244797 0.287922
2010-10-12 07:41:04 51°14.606 2°54.607 14.9612 3.787726 30.311692 0.322746
2010-10-12 07:41:10 51°14.598 2°54.576 14.9806 3.793105 30.373025 0.35757
2010-10-12 07:41:15 51°14.59 2°54.552 14.9637 3.799223 30.435136 0.392394
2010-10-12 07:41:20 51°14.579 2°54.528 14.9818 3.806184 30.503049 0.35757
2010-10-12 07:41:24 51°14.57 2°54.511 14.9832 3.809559 30.530193 0.427218
2010-10-12 07:41:30 51°14.556 2°54.485 14.9856 3.809559 30.530193 0.427218
2010-10-12 07:41:35 51°14.543 2°54.463 14.9916 3.815676 30.581784 0.427218
2010-10-12 07:41:40 51°14.53 2°54.44 14.9969 3.820528 30.621503 0.427218
2010-10-12 07:41:44 51°14.52 2°54.423 14.9981 3.824325 30.650044 0.392394
2010-10-12 07:41:50 51°14.504 2°54.395 14.9985 3.830653 30.699377 0.392394
2010-10-12 07:41:55 51°14.491 2°54.372 15.0066 3.829282 30.688334 0.392394
2010-10-12 07:42:00 51°14.478 2°54.35 15.0214 3.829282 30.688334 0.392394
2010-10-12 07:42:05 51°14.465 2°54.327 15.0204 3.835294 30.7378 0.35757
2010-10-12 07:42:10 51°14.453 2°54.303 15.0114 3.837614 30.753752 0.35757
2010-10-12 07:42:15 51°14.44 2°54.278 15.0254 3.839196 30.764304 0.322746
2010-10-12 07:42:20 51°14.43 2°54.252 15.0231 3.841727 30.780353 0.35757
2010-10-12 07:42:24 51°14.418 2°54.235 15.0186 3.844575 30.805151 0.322746
2010-10-12 07:42:29 51°14.407 2°54.209 15.0455 3.844575 30.805151 0.322746
2010-10-12 07:42:35 51°14.392 2°54.18 15.0164 3.84679 30.819559 0.322746
2010-10-12 07:42:40 51°14.381 2°54.154 15.0286 3.849427 30.837726 0.322746
2010-10-12 07:42:44 51°14.372 2°54.133 15.0142 3.852064 30.857076 0.287922
2010-10-12 07:42:49 51°14.362 2°54.107 15.043 3.851958 30.85376 0.322746
2010-10-12 07:42:55 51°14.347 2°54.077 15.012 3.851747 30.849505 0.287922
2010-10-12 07:43:00 51°14.337 2°54.05 15.0113 3.851747 30.849505 0.287922
2010-10-12 07:43:04 51°14.328 2°54.029 15.0045 3.853118 30.858757 0.253098
2010-10-12 07:43:10 51°14.314 2°53.998 15.0268 3.85449 30.866821 0.287922
2010-10-12 07:43:15 51°14.305 2°53.97 15.0207 3.855755 30.878695 0.287922
2010-10-12 07:43:20 51°14.294 2°53.943 15.0248 3.856072 30.88211 0.287922
2010-10-12 07:43:24 51°14.286 2°53.921 15.0147 3.856916 30.889631 0.322746
2010-10-12 07:43:29 51°14.276 2°53.894 15.0053 3.856916 30.889631 0.322746
2010-10-12 07:43:35 51°14.265 2°53.86 15.0145 3.856494 30.885871 0.322746
2010-10-12 07:43:40 51°14.255 2°53.832 15.0215 3.857548 30.89884 0.287922
2010-10-12 07:43:45 51°14.247 2°53.803 15.0418 3.858498 30.908492 0.35757
2010-10-12 07:43:49 51°14.239 2°53.781 15.0124 3.858709 30.908588 0.287922
2010-10-12 07:43:55 51°14.228 2°53.746 15.0271 3.858076 30.900568 0.322746
2010-10-12 07:44:00 51°14.218 2°53.718 15.0216 3.858076 30.900568 0.322746
2010-10-12 07:44:05 51°14.21 2°53.689 14.9999 3.860607 30.92373 0.322746
2010-10-12 07:44:09 51°14.201 2°53.668 15.008 3.859658 30.919432 0.322746
2010-10-12 07:44:15 51°14.19 2°53.633 15.0233 3.859658 30.919432 0.322746
2010-10-12 07:44:20 51°14.181 2°53.604 15.0008 3.859236 30.912695 0.287922
2010-10-12 07:44:25 51°14.171 2°53.577 15.0123 3.859763 30.916207 0.287922
2010-10-12 07:44:29 51°14.164 2°53.553 15.0071 3.859763 30.916207 0.287922
2010-10-12 07:44:35 51°14.153 2°53.519 15.0022 3.860607 30.923134 0.287922
2010-10-12 07:44:40 51°14.143 2°53.491 15.0312 3.861557 30.931598 0.287922
2010-10-12 07:44:44 51°14.137 2°53.467 15.0063 3.862611 30.945766 0.287922
2010-10-12 07:44:50 51°14.125 2°53.433 15.0138 3.864405 30.96414 0.287922
2010-10-12 07:44:55 51°14.117 2°53.403 15.0049 3.86451 30.963888 0.253098
2010-10-12 07:45:00 51°14.106 2°53.376 15.0064 3.86451 30.963888 0.253098
2010-10-12 07:45:04 51°14.1 2°53.351 15.0052 3.865987 30.98004 0.253098
2010-10-12 07:45:10 51°14.087 2°53.319 15.0058 3.867358 30.991674 0.253098
2010-10-12 07:45:15 51°14.078 2°53.289 15.0063 3.868729 31.005696 0.287922
2010-10-12 07:45:20 51°14.068 2°53.262 15.0173 3.868624 31.004159 0.287922
2010-10-12 07:45:24 51°14.06 2°53.238 15.0092 3.869784 31.016301 0.287922
2010-10-12 07:45:29 51°14.049 2°53.211 15.0128 3.869784 31.016301 0.287922
2010-10-12 07:45:35 51°14.038 2°53.177 15.0152 3.870206 31.01887 0.253098
2010-10-12 07:45:40 51°14.028 2°53.148 15.0218 3.870839 31.025711 0.253098
2010-10-12 07:45:45 51°14.018 2°53.12 15.0219 3.871472 31.031955 0.287922
2010-10-12 07:45:49 51°14.01 2°53.097 15.0195 3.871577 31.032896 0.287922
2010-10-12 07:45:55 51°13.998 2°53.063 15.0132 3.871999 31.036063 0.287922
2010-10-12 07:46:00 51°13.989 2°53.034 15.0116 3.871999 31.036063 0.287922
2010-10-12 07:46:05 51°13.978 2°53.007 15.0285 3.872526 31.038379 0.287922
2010-10-12 07:46:09 51°13.97 2°52.983 15.0087 3.87337 31.045907 0.287922
2010-10-12 07:46:15 51°13.958 2°52.95 15.0272 3.873476 31.045653 0.287922
2010-10-12 07:46:20 51°13.948 2°52.921 15.0092 3.87337 31.041724 0.253098
2010-10-12 07:46:25 51°13.938 2°52.893 15.0116 3.873792 31.046086 0.287922
2010-10-12 07:46:29 51°13.931 2°52.87 15.0079 3.873792 31.046086 0.287922
2010-10-12 07:46:35 51°13.918 2°52.837 15.0156 3.873581 31.043009 0.287922
2010-10-12 07:46:40 51°13.909 2°52.808 15.0003 3.873792 31.046086 0.253098
2010-10-12 07:46:44 51°13.901 2°52.786 14.9924 3.873792 31.046086 0.287922
2010-10-12 07:46:50 51°13.889 2°52.752 15.0014 3.873792 31.046683 0.287922
2010-10-12 07:46:55 51°13.879 2°52.724 14.9934 3.873687 31.045145 0.322746
2010-10-12 07:47:00 51°13.868 2°52.697 14.9882 3.873687 31.045145 0.322746
2010-10-12 07:47:04 51°13.86 2°52.675 14.9854 3.873581 31.046594 0.35757
2010-10-12 07:47:10 51°13.847 2°52.641 14.9892 3.872948 31.041545 0.35757
2010-10-12 07:47:15 51°13.838 2°52.612 14.976 3.871683 31.031448 0.392394
2010-10-12 07:47:20 51°13.826 2°52.587 14.9903 3.870944 31.02725 0.427218
2010-10-12 07:47:24 51°13.818 2°52.564 14.9827 3.86989 31.02202 0.496866
2010-10-12 07:47:29 51°13.808 2°52.536 14.9888 3.86989 31.02202 0.496866
2010-10-12 07:47:35 51°13.795 2°52.501 14.9871 3.867569 31.003703 0.566514
2010-10-12 07:47:40 51°13.785 2°52.475 14.9735 3.866092 30.993511 0.53169
2010-10-12 07:47:44 51°13.775 2°52.455 14.966 3.864616 30.981528 0.566514
2010-10-12 07:47:49 51°13.765 2°52.426 14.9669 3.862928 30.970645 0.566514
2010-10-12 07:47:55 51°13.752 2°52.393 14.9585 3.861346 30.958316 0.566514
2010-10-12 07:48:00 51°13.741 2°52.365 14.9785 3.861346 30.958316 0.566514
2010-10-12 07:48:04 51°13.733 2°52.342 14.9584 3.861135 30.955837 0.566514
2010-10-12 07:48:09 51°13.722 2°52.315 14.9688 3.859764 30.94539 0.566514
2010-10-12 07:48:15 51°13.71 2°52.28 14.9611 3.858815 30.939304 0.566514
2010-10-12 07:48:20 51°13.699 2°52.253 14.965 3.858709 30.943729 0.566514
2010-10-12 07:48:24 51°13.69 2°52.23 14.9608 3.858287 30.939963 0.53169
2010-10-12 07:48:29 51°13.681 2°52.202 14.9566 3.858287 30.939963 0.53169
2010-10-12 07:48:35 51°13.667 2°52.169 14.9554 3.85892 30.94919 0.496866
2010-10-12 07:48:40 51°13.658 2°52.139 14.9425 3.859237 30.953208 0.496866
2010-10-12 07:48:44 51°13.649 2°52.119 14.9479 3.860397 30.964162 0.496866
2010-10-12 07:48:50 51°13.636 2°52.085 14.9358 3.861452 30.975967 0.462042
2010-10-12 07:48:55 51°13.625 2°52.057 14.9405 3.862401 30.985041 0.462042
2010-10-12 07:49:00 51°13.614 2°52.03 14.931 3.862401 30.985041 0.462042
2010-10-12 07:49:04 51°13.605 2°52.007 14.9251 3.861874 30.982124 0.427218
2010-10-12 07:49:10 51°13.593 2°51.974 14.9167 3.861979 30.986052 0.392394
2010-10-12 07:49:15 51°13.582 2°51.946 14.902 3.862507 30.99136 0.35757
2010-10-12 07:49:20 51°13.572 2°51.917 14.8983 3.86314 31.001794 0.35757
2010-10-12 07:49:24 51°13.563 2°51.895 14.9074 3.863351 31.00607 0.322746
2010-10-12 07:49:30 51°13.551 2°51.861 14.897 3.863351 31.00607 0.322746
2010-10-12 07:49:35 51°13.541 2°51.833 14.9092 3.862612 31.001866 0.253098
2010-10-12 07:49:40 51°13.53 2°51.804 14.9087 3.86103 30.991319 0.287922
2010-10-12 07:49:44 51°13.522 2°51.782 14.9312 3.859026 30.978197 0.253098
2010-10-12 07:49:49 51°13.512 2°51.754 14.9259 3.856284 30.959669 0.253098
2010-10-12 07:49:55 51°13.5 2°51.719 14.9344 3.853225 30.939504 0.218274
2010-10-12 07:50:00 51°13.489 2°51.691 14.9297 3.853225 30.939504 0.218274
2010-10-12 07:50:04 51°13.482 2°51.668 14.9375 3.850272 30.918485 0.218274
2010-10-12 07:50:09 51°13.472 2°51.639 14.9361 3.849112 30.910504 0.18345
2010-10-12 07:50:15 51°13.459 2°51.605 14.9279 3.851327 30.930898 0.148626
2010-10-12 07:50:20 51°13.45 2°51.576 14.9279 3.854807 30.958424 0.148626
2010-10-12 07:50:24 51°13.44 2°51.554 14.9254 3.856811 30.97275 0.113802
2010-10-12 07:50:29 51°13.431 2°51.524 14.9204 3.856811 30.97275 0.113802
2010-10-12 07:50:35 51°13.419 2°51.491 14.9209 3.860925 31.004134 0.078977
2010-10-12 07:50:40 51°13.407 2°51.463 14.9178 3.862823 31.01871 0.078977
2010-10-12 07:50:44 51°13.4 2°51.439 14.9135 3.86314 31.018545 0.078977
2010-10-12 07:50:50 51°13.388 2°51.406 14.9199 3.86314 31.017348 0.078977
2010-10-12 07:50:55 51°13.378 2°51.377 14.9097 3.862718 31.013577 0.113802
2010-10-12 07:51:00 51°13.369 2°51.348 14.9074 3.862718 31.013577 0.113802
2010-10-12 07:51:04 51°13.359 2°51.327 14.9133 3.860292 30.995486 0.044153
2010-10-12 07:51:10 51°13.347 2°51.293 14.9164 3.859554 30.989486 0.078977
2010-10-12 07:51:15 51°13.335 2°51.267 14.9379 3.856495 30.964542 0.078977
2010-10-12 07:51:20 51°13.326 2°51.238 14.9355 3.854174 30.946793 0.078977
2010-10-12 07:51:25 51°13.315 2°51.211 14.9289 3.853014 30.937619 0.044153
2010-10-12 07:51:30 51°13.305 2°51.184 14.9426 3.853014 30.937619 0.044153
2010-10-12 07:51:35 51°13.294 2°51.157 14.9568 3.853858 30.946355 0.044153
2010-10-12 07:51:40 51°13.284 2°51.129 14.9605 3.856811 30.97574 0.044153
2010-10-12 07:51:44 51°13.275 2°51.106 14.9601 3.861874 31.020403 0.044153
2010-10-12 07:51:50 51°13.263 2°51.073 14.969 3.866199 31.056673 0.009329
2010-10-12 07:51:55 51°13.254 2°51.045 14.9738 3.870102 31.08617 0.044153
2010-10-12 07:52:00 51°13.244 2°51.018 14.99 3.870102 31.08617 0.044153
2010-10-12 07:52:04 51°13.236 2°50.994 14.9774 3.875797 31.1341 0.009329
2010-10-12 07:52:09 51°13.226 2°50.965 14.9923 3.883286 31.197469 0.009329
2010-10-12 07:52:15 51°13.213 2°50.932 14.9847 3.891303 31.263149 -0.025495
2010-10-12 07:52:20 51°13.205 2°50.905 14.9958 3.897843 31.314408 -0.025495
2010-10-12 07:52:24 51°13.196 2°50.883 14.9965 3.902167 31.348262 0.009329
2010-10-12 07:52:30 51°13.185 2°50.849 15.0036 3.902167 31.348262 0.009329
2010-10-12 07:52:35 51°13.176 2°50.82 15.0062 3.907019 31.387436 -0.025495
2010-10-12 07:52:40 51°13.167 2°50.793 15.008 3.910078 31.408143 -0.025495
2010-10-12 07:52:44 51°13.158 2°50.771 15.0098 3.913348 31.433761 -0.025495
2010-10-12 07:52:50 51°13.147 2°50.738 15.0099 3.916513 31.459646 -0.025495
2010-10-12 07:52:55 51°13.136 2°50.71 15.0174 3.919572 31.482766 0.009329
2010-10-12 07:53:00 51°13.126 2°50.681 15.0278 3.919572 31.482766 0.009329
2010-10-12 07:53:04 51°13.118 2°50.658 15.0173 3.921998 31.499615 -0.025495
2010-10-12 07:53:10 51°13.106 2°50.626 15.0161 3.92358 31.508913 0.009329
2010-10-12 07:53:15 51°13.095 2°50.598 15.0116 3.92569 31.52414 -0.025495
2010-10-12 07:53:20 51°13.086 2°50.568 15.0151 3.927167 31.535527 -0.060319
2010-10-12 07:53:25 51°13.075 2°50.543 15.0073 3.928643 31.546306 -0.060319
2010-10-12 07:53:30 51°13.065 2°50.514 15.0103 3.928643 31.546306 -0.060319
2010-10-12 07:53:35 51°13.055 2°50.485 15.0095 3.928854 31.546978 -0.025495
2010-10-12 07:53:40 51°13.045 2°50.457 15.001 3.929909 31.553374 -0.025495
2010-10-12 07:53:44 51°13.037 2°50.435 15.0099 3.930331 31.554109 0.009329
2010-10-12 07:53:50 51°13.025 2°50.401 15.0076 3.931913 31.567044 -0.025495
2010-10-12 07:53:55 51°13.016 2°50.372 14.9982 3.932124 31.569539 0.009329
2010-10-12 07:54:00 51°13.005 2°50.344 14.9894 3.932124 31.569539 0.009329
2010-10-12 07:54:04 51°12.997 2°50.322 14.9942 3.933285 31.582349 -0.025495
2010-10-12 07:54:10 51°12.986 2°50.287 15.0027 3.933496 31.584236 -0.025495
2010-10-12 07:54:15 51°12.975 2°50.26 14.9915 3.933496 31.585453 -0.025495
2010-10-12 07:54:20 51°12.965 2°50.232 14.9899 3.933179 31.585056 0.009329
2010-10-12 07:54:24 51°12.957 2°50.21 14.9852 3.933496 31.588495 -0.060319
2010-10-12 07:54:30 51°12.945 2°50.177 14.9916 3.933496 31.588495 -0.060319
2010-10-12 07:54:35 51°12.935 2°50.148 14.9989 3.932757 31.582498 0.009329
2010-10-12 07:54:40 51°12.926 2°50.12 14.9961 3.933074 31.590197 0.009329
2010-10-12 07:54:44 51°12.915 2°50.1 14.9937 3.932757 31.589191 -0.025495
2010-10-12 07:54:50 51°12.904 2°50.066 15.0015 3.931914 31.582249 -0.025495
2010-10-12 07:54:55 51°12.893 2°50.038 14.9979 3.932757 31.592234 0.009329
2010-10-12 07:55:00 51°12.883 2°50.01 15.0072 3.932757 31.592234 0.009329
2010-10-12 07:55:04 51°12.876 2°49.988 14.9976 3.933496 31.599451 -0.060319
2010-10-12 07:55:10 51°12.863 2°49.955 14.9963 3.933918 31.602618 -0.060319
2010-10-12 07:55:15 51°12.853 2°49.926 15.0052 3.935078 31.613002 -0.025495
2010-10-12 07:55:20 51°12.843 2°49.897 15.0063 3.936977 31.628777 -0.025495
2010-10-12 07:55:25 51°12.833 2°49.87 15.0025 3.938665 31.643882 -0.060319
2010-10-12 07:55:29 51°12.825 2°49.846 15.0093 3.938665 31.643882 -0.060319
2010-10-12 07:55:35 51°12.813 2°49.812 15.0126 3.939825 31.652438 -0.025495
2010-10-12 07:55:40 51°12.803 2°49.784 15.0102 3.94088 31.66066 -0.025495
2010-10-12 07:55:45 51°12.794 2°49.755 15.016 3.941829 31.669157 -0.060319
2010-10-12 07:55:49 51°12.785 2°49.734 15.0178 3.943201 31.680822 -0.060319
2010-10-12 07:55:55 51°12.774 2°49.698 15.0185 3.943728 31.684932 -0.025495
2010-10-12 07:56:00 51°12.763 2°49.671 15.0153 3.943728 31.684932 -0.025495
2010-10-12 07:56:04 51°12.755 2°49.65 15.0154 3.945732 31.702873 -0.060319
2010-10-12 07:56:09 51°12.744 2°49.622 15.0206 3.947526 31.715871 -0.060319
2010-10-12 07:56:15 51°12.732 2°49.589 15.0157 3.949635 31.733535 -0.095143
2010-10-12 07:56:20 51°12.721 2°49.562 15.0162 3.951956 31.753699 -0.060319
2010-10-12 07:56:24 51°12.714 2°49.539 15.0191 3.954593 31.773026 -0.095143
2010-10-12 07:56:29 51°12.702 2°49.514 15.0145 3.954593 31.773026 -0.095143
2010-10-12 07:56:35 51°12.69 2°49.48 15.0192 3.955965 31.784079 -0.095143
2010-10-12 07:56:40 51°12.678 2°49.454 15.0192 3.957336 31.796356 -0.060319
2010-10-12 07:56:44 51°12.672 2°49.43 15.0172 3.958707 31.808634 -0.095143
2010-10-12 07:56:49 51°12.66 2°49.406 15.0137 3.959024 31.809017 -0.095143
2010-10-12 07:56:55 51°12.649 2°49.372 15.0233 3.959235 31.811518 -0.060319
2010-10-12 07:57:00 51°12.638 2°49.345 15.0161 3.959235 31.811518 -0.060319
2010-10-12 07:57:04 51°12.63 2°49.322 15.0145 3.960079 31.818461 -0.060319
2010-10-12 07:57:09 51°12.62 2°49.296 15.0241 3.959129 31.811187 -0.095143
2010-10-12 07:57:15 51°12.608 2°49.262 15.0141 3.961134 31.826681 -0.060319
2010-10-12 07:57:20 51°12.599 2°49.234 15.0193 3.962821 31.841793 -0.060319
2010-10-12 07:57:25 51°12.589 2°49.206 15.0047 3.963876 31.851238 -0.095143
2010-10-12 07:57:29 51°12.581 2°49.184 15.0129 3.963876 31.851238 -0.095143
2010-10-12 07:57:35 51°12.57 2°49.149 15.0012 3.965142 31.862574 -0.129967
2010-10-12 07:57:40 51°12.56 2°49.121 14.9995 3.966303 31.872965 -0.095143
2010-10-12 07:57:45 51°12.549 2°49.092 15.0066 3.967147 31.882978 -0.095143
2010-10-12 07:57:49 51°12.543 2°49.069 14.9916 3.966936 31.879247 -0.095143
2010-10-12 07:57:55 51°12.528 2°49.037 14.9865 3.967991 31.890537 -0.095143
2010-10-12 07:58:00 51°12.519 2°49.008 14.9819 3.967991 31.890537 -0.095143
2010-10-12 07:58:04 51°12.51 2°48.986 14.9825 3.967569 31.8886 -0.095143
2010-10-12 07:58:10 51°12.498 2°48.954 14.989 3.967252 31.887608 -0.095143
2010-10-12 07:58:15 51°12.487 2°48.926 15 3.966619 31.883167 -0.095143
2010-10-12 07:58:20 51°12.477 2°48.898 14.9971 3.966197 31.882458 -0.095143
2010-10-12 07:58:24 51°12.47 2°48.876 15.0104 3.965248 31.875182 -0.060319
2010-10-12 07:58:30 51°12.458 2°48.843 15.0071 3.965248 31.875182 -0.060319
2010-10-12 07:58:35 51°12.447 2°48.816 15.0144 3.964299 31.869747 -0.129967
2010-10-12 07:58:40 51°12.438 2°48.787 15.0232 3.964721 31.87967 -0.095143
2010-10-12 07:58:44 51°12.429 2°48.767 15.0309 3.963877 31.873951 -0.095143
2010-10-12 07:58:49 51°12.418 2°48.739 15.0243 3.965354 31.887185 -0.095143
2010-10-12 07:58:55 51°12.407 2°48.706 15.0269 3.967252 31.901742 -0.095143
2010-10-12 07:59:00 51°12.396 2°48.679 15.023 3.967252 31.901742 -0.095143
2010-10-12 07:59:05 51°12.385 2°48.653 15.0337 3.972105 31.944001 -0.129967
2010-10-12 07:59:09 51°12.377 2°48.63 15.0262 3.976852 31.980388 -0.129967
2010-10-12 07:59:15 51°12.365 2°48.597 15.0273 3.980017 32.005055 -0.095143
2010-10-12 07:59:20 51°12.354 2°48.57 15.0256 3.982232 32.019976 -0.164791
2010-10-12 07:59:25 51°12.345 2°48.541 15.0261 3.984236 32.034855 -0.129967
2010-10-12 07:59:29 51°12.336 2°48.52 15.0318 3.984236 32.034855 -0.129967
2010-10-12 07:59:35 51°12.325 2°48.486 15.0188 3.986979 32.057585 -0.164791
2010-10-12 07:59:40 51°12.315 2°48.458 15.0302 3.9893 32.077151 -0.129967
2010-10-12 07:59:44 51°12.308 2°48.434 15.0143 3.990249 32.083807 -0.199615
2010-10-12 07:59:49 51°12.298 2°48.408 15.0224 3.991726 32.09519 -0.164791
2010-10-12 07:59:55 51°12.287 2°48.373 15.0095 3.992676 32.102464 -0.164791
2010-10-12 08:00:00 51°12.277 2°48.346 15.0253 3.992676 32.102464 -0.164791
2010-10-12 08:00:04 51°12.268 2°48.324 15.0138 3.99352 32.111883 -0.129967
2010-10-12 08:00:10 51°12.257 2°48.29 15.0209 3.993731 32.113156 -0.164791
2010-10-12 08:00:15 51°12.246 2°48.264 15.0146 3.993836 32.115338 -0.164791
2010-10-12 08:00:20 51°12.238 2°48.235 15.0168 3.993942 32.116284 -0.129967
2010-10-12 08:00:24 51°12.229 2°48.213 15.0105 3.994891 32.126032 -0.164791
2010-10-12 08:00:30 51°12.216 2°48.181 15.0142 3.994891 32.126032 -0.164791
2010-10-12 08:00:35 51°12.206 2°48.154 15.0143 3.994891 32.127888 -0.164791
2010-10-12 08:00:40 51°12.196 2°48.125 15.012 3.995524 32.134801 -0.129967
2010-10-12 08:00:44 51°12.187 2°48.104 15.0107 3.995735 32.13855 -0.129967
2010-10-12 08:00:50 51°12.176 2°48.07 15.0111 3.996474 32.145171 -0.164791
2010-10-12 08:00:55 51°12.165 2°48.042 15.0168 3.997423 32.151827 -0.164791
2010-10-12 08:01:00 51°12.157 2°48.014 15.0178 3.997423 32.151827 -0.164791
2010-10-12 08:01:04 51°12.148 2°47.993 15.0123 3.998162 32.161546 -0.164791
2010-10-12 08:01:09 51°12.139 2°47.964 15.0159 3.998373 32.163438 -0.164791
2010-10-12 08:01:15 51°12.126 2°47.932 15.0172 3.999111 32.16944 -0.164791
2010-10-12 08:01:20 51°12.116 2°47.903 15.0223 3.999428 32.173518 -0.129967
2010-10-12 08:01:24 51°12.108 2°47.881 15.0286 4.000483 32.184219 -0.164791
2010-10-12 08:01:29 51°12.097 2°47.855 15.0272 4.000483 32.184219 -0.164791
2010-10-12 08:01:35 51°12.086 2°47.82 15.0395 4.00101 32.18709 -0.164791
2010-10-12 08:01:40 51°12.076 2°47.792 15.0452 4.00196 32.196846 -0.199615
2010-10-12 08:01:44 51°12.067 2°47.77 15.0614 4.004069 32.21515 -0.199615
2010-10-12 08:01:49 51°12.059 2°47.741 15.0555 4.006074 32.230647 -0.164791
2010-10-12 08:01:55 51°12.046 2°47.709 15.0579 4.00734 32.241382 -0.164791
2010-10-12 08:02:00 51°12.034 2°47.682 15.0711 4.00734 32.241382 -0.164791
2010-10-12 08:02:04 51°12.028 2°47.658 15.0721 4.008289 32.248035 -0.164791
2010-10-12 08:02:10 51°12.013 2°47.628 15.0815 4.010083 32.262259 -0.164791
2010-10-12 08:02:15 51°12.004 2°47.599 15.0829 4.013669 32.289461 -0.164791
2010-10-12 08:02:20 51°11.992 2°47.574 15.0901 4.016729 32.311305 -0.234439
2010-10-12 08:02:24 51°11.985 2°47.551 15.0844 4.020316 32.337255 -0.199615
2010-10-12 08:02:30 51°11.973 2°47.518 15.0815 4.020316 32.337255 -0.199615
2010-10-12 08:02:35 51°11.963 2°47.49 15.0865 4.025063 32.375476 -0.234439
2010-10-12 08:02:40 51°11.953 2°47.462 15.1001 4.027806 32.393846 -0.164791
2010-10-12 08:02:44 51°11.945 2°47.439 15.0896 4.03076 32.41348 -0.199615
2010-10-12 08:02:50 51°11.934 2°47.406 15.0844 4.033186 32.430875 -0.199615
2010-10-12 08:02:55 51°11.924 2°47.378 15.0791 4.03498 32.441343 -0.199615
2010-10-12 08:03:00 51°11.914 2°47.35 15.0919 4.03498 32.441343 -0.199615
2010-10-12 08:03:04 51°11.906 2°47.327 15.0811 4.035718 32.445469 -0.234439
2010-10-12 08:03:09 51°11.896 2°47.299 15.0834 4.038144 32.466602 -0.199615
2010-10-12 08:03:15 51°11.885 2°47.266 15.0916 4.039621 32.478597 -0.199615
2010-10-12 08:03:20 51°11.875 2°47.237 15.0771 4.039727 32.476421 -0.164791
2010-10-12 08:03:24 51°11.868 2°47.214 15.0768 4.041098 32.488719 -0.199615
2010-10-12 08:03:29 51°11.859 2°47.186 15.0771 4.041098 32.488719 -0.199615
2010-10-12 08:03:35 51°11.847 2°47.153 15.0776 4.042153 32.498804 -0.199615
2010-10-12 08:03:40 51°11.837 2°47.125 15.0727 4.042575 32.503213 -0.199615
2010-10-12 08:03:44 51°11.831 2°47.101 15.0845 4.042997 32.508247 -0.199615
2010-10-12 08:03:49 51°11.819 2°47.074 15.073 4.043208 32.509515 -0.199615
2010-10-12 08:03:55 51°11.809 2°47.039 15.0683 4.042786 32.506355 -0.199615
2010-10-12 08:04:00 51°11.798 2°47.012 15.0681 4.042786 32.506355 -0.199615
2010-10-12 08:04:04 51°11.791 2°46.989 15.0695 4.043314 32.511711 -0.199615
2010-10-12 08:04:10 51°11.779 2°46.956 15.0691 4.044052 32.51896 -0.199615
2010-10-12 08:04:15 51°11.769 2°46.927 15.0709 4.044053 32.521461 -0.234439
2010-10-12 08:04:20 51°11.76 2°46.898 15.062 4.043314 32.516088 -0.164791
2010-10-12 08:04:24 51°11.752 2°46.876 15.063 4.04342 32.51766 -0.199615
2010-10-12 08:04:30 51°11.74 2°46.843 15.0681 4.04342 32.51766 -0.199615
2010-10-12 08:04:35 51°11.731 2°46.814 15.0599 4.04342 32.51891 -0.234439
2010-10-12 08:04:40 51°11.721 2°46.786 15.0642 4.043103 32.517948 -0.199615
2010-10-12 08:04:45 51°11.712 2°46.758 15.0636 4.04342 32.522038 -0.199615
2010-10-12 08:04:50 51°11.702 2°46.731 15.065 4.04342 32.523915 -0.269263
2010-10-12 08:04:55 51°11.691 2°46.704 15.0672 4.044475 32.530877 -0.234439
2010-10-12 08:05:00 51°11.682 2°46.674 15.0717 4.044475 32.530877 -0.234439
2010-10-12 08:05:04 51°11.673 2°46.654 15.0782 4.043842 32.531456 -0.269263
2010-10-12 08:05:10 51°11.661 2°46.621 15.0845 4.046268 32.55323 -0.234439
2010-10-12 08:05:15 51°11.651 2°46.592 15.092 4.04669 32.557643 -0.234439
2010-10-12 08:05:20 51°11.64 2°46.565 15.0926 4.043736 32.531135 -0.269263
2010-10-12 08:05:24 51°11.632 2°46.543 15.0986 4.047429 32.564897 -0.234439
2010-10-12 08:05:29 51°11.623 2°46.515 15.106 4.047429 32.564897 -0.234439
2010-10-12 08:05:35 51°11.61 2°46.481 15.1052 4.05091 32.59489 -0.234439
2010-10-12 08:05:40 51°11.601 2°46.453 15.1194 4.054497 32.625205 -0.234439
2010-10-12 08:05:44 51°11.593 2°46.431 15.1199 4.057979 32.652061 -0.269263
2010-10-12 08:05:50 51°11.582 2°46.397 15.1299 4.062199 32.684286 -0.269263
2010-10-12 08:05:55 51°11.571 2°46.37 15.1349 4.065786 32.713341 -0.269263
2010-10-12 08:06:00 51°11.562 2°46.34 15.1462 4.065786 32.713341 -0.269263
2010-10-12 08:06:04 51°11.555 2°46.318 15.1455 4.06874 32.735454 -0.269263
2010-10-12 08:06:10 51°11.541 2°46.287 15.1503 4.071905 32.758828 -0.234439
2010-10-12 08:06:15 51°11.531 2°46.259 15.1592 4.075387 32.785039 -0.269263
2010-10-12 08:06:20 51°11.521 2°46.231 15.1647 4.078763 32.80967 -0.269263
2010-10-12 08:06:24 51°11.513 2°46.209 15.1711 4.082983 32.842502 -0.269263
2010-10-12 08:06:30 51°11.501 2°46.177 15.1616 4.082983 32.842502 -0.269263
2010-10-12 08:06:35 51°11.491 2°46.149 15.1683 4.085831 32.861127 -0.304087
2010-10-12 08:06:40 51°11.482 2°46.12 15.1613 4.089313 32.888586 -0.269263
2010-10-12 08:06:45 51°11.471 2°46.094 15.1653 4.094377 32.927086 -0.304087
2010-10-12 08:06:50 51°11.463 2°46.064 15.1619 4.097542 32.9498 -0.269263
2010-10-12 08:06:55 51°11.452 2°46.037 15.1708 4.101235 32.975979 -0.269263
2010-10-12 08:07:00 51°11.443 2°46.009 15.168 4.101235 32.975979 -0.269263
2010-10-12 08:07:05 51°11.433 2°45.981 15.166 4.104506 33.000898 -0.269263
2010-10-12 08:07:10 51°11.423 2°45.953 15.1624 4.105877 33.010039 -0.304087
2010-10-12 08:07:15 51°11.414 2°45.924 15.1639 4.106932 33.018873 -0.269263
2010-10-12 08:07:20 51°11.404 2°45.897 15.1669 4.108409 33.032129 -0.234439
2010-10-12 08:07:24 51°11.396 2°45.875 15.1782 4.109675 33.043491 -0.269263
2010-10-12 08:07:29 51°11.387 2°45.847 15.1794 4.109675 33.043491 -0.269263
2010-10-12 08:07:35 51°11.375 2°45.813 15.1858 4.110836 33.052639 -0.304087
2010-10-12 08:07:40 51°11.366 2°45.785 15.1905 4.111997 33.061152 -0.269263
2010-10-12 08:07:44 51°11.358 2°45.763 15.1894 4.113685 33.075668 -0.269263
2010-10-12 08:07:50 51°11.347 2°45.729 15.1967 4.115267 33.091143 -0.269263
2010-10-12 08:07:55 51°11.337 2°45.7 15.1919 4.116534 33.101873 -0.269263
2010-10-12 08:08:00 51°11.328 2°45.672 15.1956 4.116534 33.101873 -0.269263
2010-10-12 08:08:04 51°11.32 2°45.65 15.1952 4.118433 33.117014 -0.269263
2010-10-12 08:08:10 51°11.309 2°45.617 15.1969 4.119699 33.12393 -0.269263
2010-10-12 08:08:15 51°11.3 2°45.588 15.194 4.12202 33.142858 -0.269263
2010-10-12 08:08:20 51°11.289 2°45.561 15.1976 4.125502 33.16775 -0.269263
2010-10-12 08:08:24 51°11.282 2°45.538 15.1925 4.12835 33.190138 -0.304087
2010-10-12 08:08:29 51°11.272 2°45.511 15.1903 4.12835 33.190138 -0.304087
2010-10-12 08:08:35 51°11.262 2°45.476 15.1853 4.129828 33.201486 -0.269263
2010-10-12 08:08:40 51°11.251 2°45.45 15.1861 4.131305 33.213471 -0.269263
2010-10-12 08:08:45 51°11.243 2°45.42 15.1823 4.132782 33.224182 -0.304087
2010-10-12 08:08:49 51°11.234 2°45.399 15.1961 4.133942 33.233962 -0.304087
2010-10-12 08:08:55 51°11.223 2°45.364 15.1897 4.135209 33.245327 -0.234439
2010-10-12 08:09:00 51°11.212 2°45.337 15.1993 4.135209 33.245327 -0.234439
2010-10-12 08:09:05 51°11.203 2°45.309 15.2022 4.135631 33.247203 -0.304087
2010-10-12 08:09:09 51°11.195 2°45.288 15.2068 4.136264 33.254798 -0.304087
2010-10-12 08:09:15 51°11.184 2°45.253 15.2119 4.136791 33.26081 -0.269263
2010-10-12 08:09:20 51°11.173 2°45.225 15.215 4.13542 33.251685 -0.269263
2010-10-12 08:09:25 51°11.164 2°45.196 15.2191 4.134892 33.247586 -0.234439
2010-10-12 08:09:29 51°11.155 2°45.175 15.2201 4.134892 33.247586 -0.234439
2010-10-12 08:09:35 51°11.144 2°45.142 15.2208 4.136686 33.263052 -0.269263
2010-10-12 08:09:40 51°11.135 2°45.114 15.2198 4.138374 33.273742 -0.304087
2010-10-12 08:09:44 51°11.126 2°45.092 15.2241 4.140906 33.293285 -0.269263
2010-10-12 08:09:49 51°11.117 2°45.063 15.2274 4.144388 33.321352 -0.269263
2010-10-12 08:09:55 51°11.103 2°45.033 15.2239 4.146709 33.338358 -0.234439
2010-10-12 08:10:00 51°11.094 2°45.004 15.2219 4.146709 33.338358 -0.234439
2010-10-12 08:10:04 51°11.086 2°44.983 15.2235 4.148503 33.345513 -0.269263
2010-10-12 08:10:09 51°11.076 2°44.956 15.2317 4.14998 33.361969 -0.234439
2010-10-12 08:10:15 51°11.063 2°44.923 15.2285 4.151879 33.375821 -0.234439
2010-10-12 08:10:20 51°11.052 2°44.895 15.2292 4.15304 33.384322 -0.269263
2010-10-12 08:10:24 51°11.044 2°44.874 15.2358 4.154517 33.396303 -0.269263
2010-10-12 08:10:29 51°11.034 2°44.846 15.2337 4.154517 33.396303 -0.269263
2010-10-12 08:10:35 51°11.023 2°44.814 15.2364 4.155678 33.404802 -0.269263
2010-10-12 08:10:40 51°11.012 2°44.787 15.2401 4.157049 33.416476 -0.269263
2010-10-12 08:10:45 51°11.003 2°44.759 15.2476 4.15821 33.426896 -0.234439
2010-10-12 08:10:49 51°10.995 2°44.736 15.2491 4.158949 33.432246 -0.234439
2010-10-12 08:10:55 51°10.984 2°44.702 15.2526 4.159371 33.434113 -0.234439
2010-10-12 08:11:00 51°10.974 2°44.676 15.2507 4.159371 33.434113 -0.234439
2010-10-12 08:11:05 51°10.965 2°44.648 15.2509 4.159793 33.436621 -0.234439
2010-10-12 08:11:09 51°10.958 2°44.625 15.2533 4.161059 33.445425 -0.269263
2010-10-12 08:11:15 51°10.947 2°44.591 15.2584 4.162747 33.458657 -0.199615
2010-10-12 08:11:20 51°10.938 2°44.564 15.2591 4.164752 33.47409 -0.234439
2010-10-12 08:11:25 51°10.928 2°44.537 15.267 4.166756 33.488881 -0.234439
2010-10-12 08:11:29 51°10.921 2°44.515 15.2747 4.166756 33.488881 -0.234439
2010-10-12 08:11:35 51°10.91 2°44.481 15.277 4.168234 33.498293 -0.199615
2010-10-12 08:11:40 51°10.902 2°44.454 15.2873 4.169078 33.503303 -0.234439
2010-10-12 08:11:44 51°10.894 2°44.433 15.2872 4.170766 33.517816 -0.199615
2010-10-12 08:11:50 51°10.884 2°44.399 15.2914 4.171399 33.52029 -0.199615
2010-10-12 08:11:55 51°10.873 2°44.372 15.2968 4.172454 33.529119 -0.234439
2010-10-12 08:12:00 51°10.864 2°44.345 15.2988 4.172454 33.529119 -0.234439
2010-10-12 08:12:04 51°10.856 2°44.324 15.3024 4.173931 33.538526 -0.234439
2010-10-12 08:12:10 51°10.844 2°44.292 15.3026 4.175831 33.552362 -0.199615
2010-10-12 08:12:15 51°10.834 2°44.265 15.3036 4.178257 33.568362 -0.199615
2010-10-12 08:12:20 51°10.824 2°44.238 15.3018 4.180473 33.582465 -0.199615
2010-10-12 08:12:25 51°10.814 2°44.212 15.3016 4.183217 33.603228 -0.164791
2010-10-12 08:12:29 51°10.806 2°44.191 15.3013 4.183217 33.603228 -0.164791
2010-10-12 08:12:35 51°10.796 2°44.157 15.3038 4.185854 33.620469 -0.199615
2010-10-12 08:12:40 51°10.786 2°44.131 15.3033 4.188598 33.644443 -0.199615
2010-10-12 08:12:44 51°10.779 2°44.108 15.3044 4.190603 33.657928 -0.234439
2010-10-12 08:12:49 51°10.771 2°44.08 15.3043 4.192607 33.673343 -0.199615
2010-10-12 08:12:55 51°10.761 2°44.047 15.3063 4.193346 33.679971 -0.199615
2010-10-12 08:13:00 51°10.755 2°44.018 15.3091 4.193346 33.679971 -0.199615
2010-10-12 08:13:05 51°10.746 2°43.99 15.3166 4.194612 33.690689 -0.234439
2010-10-12 08:13:09 51°10.74 2°43.967 15.3111 4.196089 33.701368 -0.234439
2010-10-12 08:13:15 51°10.731 2°43.933 15.3135 4.196934 33.707654 -0.269263
2010-10-12 08:13:20 51°10.724 2°43.904 15.3144 4.197883 33.715532 -0.234439
2010-10-12 08:13:25 51°10.717 2°43.875 15.3139 4.199255 33.726552 -0.199615
2010-10-12 08:13:29 51°10.711 2°43.853 15.3172 4.199255 33.726552 -0.199615
2010-10-12 08:13:35 51°10.703 2°43.817 15.3191 4.200943 33.740413 -0.199615
2010-10-12 08:13:40 51°10.696 2°43.789 15.3185 4.201576 33.745449 -0.199615
2010-10-12 08:13:44 51°10.691 2°43.765 15.3221 4.202315 33.750142 -0.199615
2010-10-12 08:13:49 51°10.683 2°43.736 15.3293 4.204742 33.768695 -0.199615
2010-10-12 08:13:55 51°10.674 2°43.702 15.3275 4.206536 33.785439 -0.164791
2010-10-12 08:14:00 51°10.668 2°43.672 15.3307 4.206536 33.785439 -0.164791
2010-10-12 08:14:04 51°10.661 2°43.649 15.3339 4.208646 33.803733 -0.164791
2010-10-12 08:14:09 51°10.655 2°43.62 15.3368 4.209385 33.808424 -0.164791
2010-10-12 08:14:15 51°10.647 2°43.585 15.3374 4.211284 33.824825 -0.129967
2010-10-12 08:14:20 51°10.639 2°43.556 15.3394 4.212128 33.832402 -0.129967
2010-10-12 08:14:24 51°10.634 2°43.533 15.3385 4.213078 33.837692 -0.164791
2010-10-12 08:14:29 51°10.626 2°43.504 15.3423 4.213078 33.837692 -0.164791
2010-10-12 08:14:35 51°10.618 2°43.469 15.3397 4.214766 33.850258 -0.095143
2010-10-12 08:14:40 51°10.61 2°43.44 15.3379 4.215821 33.857141 -0.095143
2010-10-12 08:14:44 51°10.604 2°43.417 15.3411 4.217088 33.865917 -0.129967
2010-10-12 08:14:49 51°10.597 2°43.388 15.3408 4.217615 33.868711 -0.095143
2010-10-12 08:14:55 51°10.589 2°43.354 15.3419 4.218881 33.87878 -0.095143
2010-10-12 08:15:00 51°10.582 2°43.325 15.3393 4.218881 33.87878 -0.095143
2010-10-12 08:15:05 51°10.576 2°43.295 15.3437 4.218776 33.875892 -0.095143
2010-10-12 08:15:09 51°10.57 2°43.271 15.3475 4.220042 33.884666 -0.129967
2010-10-12 08:15:15 51°10.562 2°43.237 15.3445 4.220148 33.885613 -0.129967
2010-10-12 08:15:20 51°10.555 2°43.208 15.3433 4.220359 33.886859 -0.095143
2010-10-12 08:15:25 51°10.547 2°43.179 15.3446 4.220464 33.887806 -0.060319
2010-10-12 08:15:29 51°10.542 2°43.156 15.345 4.220464 33.887806 -0.060319
2010-10-12 08:15:35 51°10.534 2°43.121 15.3502 4.221519 33.895333 -0.095143
2010-10-12 08:15:40 51°10.525 2°43.093 15.3518 4.219409 33.878985 -0.060319
2010-10-12 08:15:45 51°10.518 2°43.064 15.356 4.222363 33.902908 -0.025495
2010-10-12 08:15:50 51°10.51 2°43.036 15.3571 4.222891 33.906348 -0.060319
2010-10-12 08:15:55 51°10.501 2°43.008 15.3586 4.224263 33.91801 -0.095143
2010-10-12 08:16:00 51°10.493 2°42.981 15.3628 4.224263 33.91801 -0.095143
2010-10-12 08:16:04 51°10.486 2°42.958 15.3632 4.225001 33.923343 -0.060319
2010-10-12 08:16:10 51°10.477 2°42.925 15.3645 4.226057 33.930868 -0.095143
2010-10-12 08:16:15 51°10.47 2°42.896 15.3691 4.226162 33.930519 -0.095143
2010-10-12 08:16:20 51°10.462 2°42.868 15.3736 4.226901 33.937147 -0.060319
2010-10-12 08:16:24 51°10.456 2°42.846 15.3732 4.227428 33.939289 -0.060319
2010-10-12 08:16:30 51°10.447 2°42.811 15.3765 4.227428 33.939289 -0.060319
2010-10-12 08:16:35 51°10.44 2°42.782 15.3747 4.227745 33.939537 -0.095143
2010-10-12 08:16:40 51°10.433 2°42.754 15.3794 4.228589 33.944519 -0.060319
2010-10-12 08:16:44 51°10.428 2°42.731 15.3778 4.229433 33.950149 -0.025495
2010-10-12 08:16:49 51°10.421 2°42.703 15.376 4.230594 33.955377 -0.060319
2010-10-12 08:16:55 51°10.414 2°42.668 15.3797 4.230699 33.956972 -0.095143
2010-10-12 08:17:00 51°10.408 2°42.639 15.3792 4.230699 33.956972 -0.095143
2010-10-12 08:17:05 51°10.401 2°42.61 15.3759 4.230805 33.955326 -0.060319
2010-10-12 08:17:09 51°10.396 2°42.586 15.3797 4.231755 33.960605 -0.060319
2010-10-12 08:17:15 51°10.389 2°42.552 15.3794 4.232177 33.963095 -0.060319
2010-10-12 08:17:20 51°10.383 2°42.522 15.3781 4.232493 33.964638 -0.095143
2010-10-12 08:17:25 51°10.377 2°42.493 15.3782 4.233021 33.968074 -0.095143
2010-10-12 08:17:29 51°10.372 2°42.47 15.3752 4.233021 33.968074 -0.095143
2010-10-12 08:17:35 51°10.366 2°42.434 15.3752 4.233654 33.972456 -0.060319
2010-10-12 08:17:40 51°10.359 2°42.405 15.3765 4.233865 33.973053 -0.095143
2010-10-12 08:17:45 51°10.354 2°42.375 15.3752 4.234181 33.975244 -0.129967
2010-10-12 08:17:49 51°10.35 2°42.352 15.3768 4.235026 33.979574 -0.060319
2010-10-12 08:17:55 51°10.343 2°42.317 15.3695 4.235026 33.984761 -0.095143
2010-10-12 08:18:00 51°10.338 2°42.287 15.37 4.235026 33.984761 -0.095143
2010-10-12 08:18:05 51°10.332 2°42.257 15.3683 4.235659 33.989143 -0.095143
2010-10-12 08:18:10 51°10.327 2°42.227 15.3675 4.235237 33.986005 -0.095143
2010-10-12 08:18:15 51°10.32 2°42.198 15.3696 4.23587 33.991036 -0.095143
2010-10-12 08:18:20 51°10.315 2°42.169 15.366 4.236397 33.997065 -0.095143
2010-10-12 08:18:25 51°10.308 2°42.14 15.3687 4.236081 33.994874 -0.095143
2010-10-12 08:18:30 51°10.304 2°42.11 15.3665 4.236081 33.994874 -0.095143
2010-10-12 08:18:35 51°10.296 2°42.081 15.3691 4.23587 33.995576 -0.129967
2010-10-12 08:18:40 51°10.292 2°42.051 15.3654 4.236925 34.005043 -0.129967
2010-10-12 08:18:44 51°10.286 2°42.028 15.3629 4.23798 34.01451 -0.129967
2010-10-12 08:18:50 51°10.28 2°41.992 15.3648 4.238508 34.020542 -0.095143
2010-10-12 08:18:55 51°10.273 2°41.963 15.3679 4.238508 34.023788 -0.129967
2010-10-12 08:19:00 51°10.269 2°41.933 15.362 4.238508 34.023788 -0.129967
2010-10-12 08:19:04 51°10.263 2°41.91 15.3674 4.238825 34.025979 -0.164791
2010-10-12 08:19:09 51°10.258 2°41.88 15.3743 4.239458 34.031011 -0.129967
2010-10-12 08:19:15 51°10.25 2°41.845 15.3677 4.240196 34.038939 -0.129967
2010-10-12 08:19:20 51°10.245 2°41.815 15.368 4.240407 34.040832 -0.164791
2010-10-12 08:19:24 51°10.24 2°41.791 15.3694 4.241568 34.051249 -0.129967
2010-10-12 08:19:29 51°10.234 2°41.762 15.3696 4.241568 34.051249 -0.129967
2010-10-12 08:19:35 51°10.228 2°41.726 15.3716 4.241779 34.053793 -0.164791
2010-10-12 08:19:40 51°10.222 2°41.696 15.3706 4.241885 34.05474 -0.129967
2010-10-12 08:19:44 51°10.217 2°41.673 15.3738 4.242412 34.058825 -0.164791
2010-10-12 08:19:49 51°10.212 2°41.643 15.3759 4.24083 34.042671 -0.164791
2010-10-12 08:19:55 51°10.205 2°41.607 15.3744 4.242623 34.059419 -0.164791
2010-10-12 08:20:00 51°10.2 2°41.577 15.3776 4.242623 34.059419 -0.164791
2010-10-12 08:20:04 51°10.194 2°41.553 15.3774 4.242623 34.059419 -0.164791
2010-10-12 08:20:10 51°10.188 2°41.517 15.3785 4.243362 34.065398 -0.129967
2010-10-12 08:20:15 51°10.182 2°41.488 15.3777 4.24389 34.070133 -0.164791
2010-10-12 08:20:20 51°10.177 2°41.458 15.377 4.244206 34.072323 -0.164791
2010-10-12 08:20:24 51°10.17 2°41.434 15.3837 4.244312 34.07197 -0.164791
2010-10-12 08:20:30 51°10.165 2°41.398 15.3767 4.244312 34.07197 -0.164791
2010-10-12 08:20:35 51°10.156 2°41.37 15.3773 4.245473 34.079785 -0.164791
2010-10-12 08:20:40 51°10.149 2°41.34 15.3832 4.245367 34.079489 -0.164791
2010-10-12 08:20:44 51°10.144 2°41.316 15.3814 4.245367 34.078188 -0.199615
2010-10-12 08:20:50 51°10.135 2°41.283 15.3813 4.246211 34.085113 -0.199615
2010-10-12 08:20:55 51°10.129 2°41.253 15.3835 4.246633 34.0876 -0.199615
2010-10-12 08:21:00 51°10.123 2°41.222 15.3821 4.246633 34.0876 -0.199615
2010-10-12 08:21:04 51°10.118 2°41.199 15.3831 4.247055 34.090737 -0.199615
2010-10-12 08:21:10 51°10.109 2°41.163 15.383 4.247372 34.09553 -0.199615
2010-10-12 08:21:15 51°10.104 2°41.134 15.3837 4.2479 34.098312 -0.164791
2010-10-12 08:21:20 51°10.096 2°41.105 15.3822 4.247794 34.096064 -0.164791
2010-10-12 08:21:24 51°10.091 2°41.081 15.3866 4.249166 34.107724 -0.164791
2010-10-12 08:21:29 51°10.086 2°41.051 15.3847 4.249166 34.107724 -0.164791
2010-10-12 08:21:35 51°10.077 2°41.015 15.3844 4.248955 34.103227 -0.164791
2010-10-12 08:21:40 51°10.072 2°40.985 15.3851 4.249482 34.108612 -0.164791
2010-10-12 08:21:44 51°10.067 2°40.961 15.3849 4.250221 34.115241 -0.199615
2010-10-12 08:21:50 51°10.06 2°40.925 15.3889 4.25096 34.120567 -0.199615
2010-10-12 08:21:55 51°10.054 2°40.895 15.3861 4.251487 34.126604 -0.164791
2010-10-12 08:22:00 51°10.049 2°40.865 15.3881 4.251487 34.126604 -0.164791
2010-10-12 08:22:04 51°10.044 2°40.841 15.3886 4.25212 34.131635 -0.164791
2010-10-12 08:22:10 51°10.038 2°40.804 15.3885 4.25212 34.131635 -0.164791
2010-10-12 08:22:15 51°10.031 2°40.775 15.3891 4.252859 34.138915 -0.234439
2010-10-12 08:22:20 51°10.027 2°40.745 15.3895 4.253176 34.139802 -0.199615
2010-10-12 08:22:24 51°10.021 2°40.722 15.3908 4.253281 34.140098 -0.164791
2010-10-12 08:22:30 51°10.014 2°40.685 15.3926 4.253281 34.140098 -0.164791
2010-10-12 08:22:35 51°10.008 2°40.655 15.3925 4.254442 34.149863 -0.199615
2010-10-12 08:22:40 51°10.002 2°40.626 15.3932 4.254653 34.151106 -0.199615
2010-10-12 08:22:44 51°9.996 2°40.602 15.3918 4.254864 34.154954 -0.164791
2010-10-12 08:22:50 51°9.989 2°40.567 15.3974 4.255603 34.158325 -0.199615
2010-10-12 08:22:55 51°9.984 2°40.536 15.3924 4.25613 34.163712 -0.234439
2010-10-12 08:23:00 51°9.978 2°40.507 15.3966 4.25613 34.163712 -0.234439
2010-10-12 08:23:04 51°9.974 2°40.482 15.3969 4.256764 34.168743 -0.234439
2010-10-12 08:23:09 51°9.968 2°40.453 15.3969 4.256236 34.164007 -0.164791
2010-10-12 08:23:15 51°9.962 2°40.417 15.3987 4.258135 34.179098 -0.234439
2010-10-12 08:23:20 51°9.955 2°40.387 15.4002 4.25803 34.176847 -0.234439
2010-10-12 08:23:24 51°9.951 2°40.363 15.3979 4.258663 34.181226 -0.199615
2010-10-12 08:23:29 51°9.944 2°40.333 15.3982 4.258663 34.181226 -0.199615
2010-10-12 08:23:35 51°9.938 2°40.297 15.4015 4.258663 34.180574 -0.199615
2010-10-12 08:23:40 51°9.931 2°40.267 15.4021 4.259507 34.188149 -0.199615
2010-10-12 08:23:44 51°9.927 2°40.243 15.4027 4.259507 34.188149 -0.234439
2010-10-12 08:23:50 51°9.919 2°40.208 15.4001 4.260351 34.193769 -0.234439
2010-10-12 08:23:55 51°9.914 2°40.177 15.4014 4.260879 34.198504 -0.234439
2010-10-12 08:24:00 51°9.906 2°40.148 15.4051 4.260879 34.198504 -0.234439
2010-10-12 08:24:04 51°9.903 2°40.124 15.3984 4.261829 34.206374 -0.234439
2010-10-12 08:24:10 51°9.894 2°40.089 15.4065 4.261512 34.204186 -0.199615
2010-10-12 08:24:15 51°9.89 2°40.059 15.3974 4.262251 34.208858 -0.234439
2010-10-12 08:24:20 51°9.882 2°40.03 15.3995 4.262567 34.211699 -0.199615
2010-10-12 08:24:24 51°9.879 2°40.005 15.4031 4.262778 34.214898 -0.234439
2010-10-12 08:24:30 51°9.87 2°39.971 15.4038 4.262778 34.214898 -0.234439
2010-10-12 08:24:35 51°9.866 2°39.941 15.4008 4.262462 34.210099 -0.199615
2010-10-12 08:24:40 51°9.859 2°39.911 15.3989 4.2632 34.216076 -0.234439
2010-10-12 08:24:45 51°9.854 2°39.881 15.3983 4.263623 34.218559 -0.234439
2010-10-12 08:24:50 51°9.848 2°39.851 15.3968 4.264045 34.222999 -0.234439
2010-10-12 08:24:55 51°9.843 2°39.821 15.3942 4.264467 34.22744 -0.199615
2010-10-12 08:25:00 51°9.836 2°39.792 15.3932 4.264467 34.22744 -0.199615
2010-10-12 08:25:04 51°9.831 2°39.768 15.3958 4.264572 34.227734 -0.199615
2010-10-12 08:25:09 51°9.826 2°39.737 15.3889 4.264889 34.229922 -0.234439
2010-10-12 08:25:15 51°9.817 2°39.703 15.3881 4.265311 34.234363 -0.199615
2010-10-12 08:25:20 51°9.811 2°39.673 15.3898 4.265628 34.237205 -0.234439
2010-10-12 08:25:24 51°9.805 2°39.65 15.3846 4.265522 34.237563 -0.269263
2010-10-12 08:25:29 51°9.8 2°39.62 15.3914 4.265522 34.237563 -0.269263
2010-10-12 08:25:35 51°9.792 2°39.583 15.3854 4.26605 34.243605 -0.234439
2010-10-12 08:25:40 51°9.786 2°39.555 15.3885 4.266155 34.246511 -0.269263
2010-10-12 08:25:44 51°9.78 2°39.531 15.3849 4.266366 34.249059 -0.234439
2010-10-12 08:25:50 51°9.773 2°39.496 15.3807 4.266894 34.255102 -0.199615
2010-10-12 08:25:55 51°9.766 2°39.467 15.3777 4.267105 34.25765 -0.234439
2010-10-12 08:26:00 51°9.761 2°39.437 15.3825 4.267105 34.25765 -0.234439
2010-10-12 08:26:04 51°9.756 2°39.413 15.375 4.267105 34.259611 -0.234439
2010-10-12 08:26:09 51°9.75 2°39.383 15.3721 4.267527 34.264707 -0.269263
2010-10-12 08:26:15 51°9.743 2°39.347 15.3713 4.267949 34.267843 -0.199615
2010-10-12 08:26:20 51°9.737 2°39.317 15.3752 4.267633 34.265655 -0.199615
2010-10-12 08:26:24 51°9.733 2°39.293 15.3706 4.267633 34.266962 -0.234439
2010-10-12 08:26:29 51°9.726 2°39.263 15.3692 4.267633 34.266962 -0.234439
2010-10-12 08:26:35 51°9.721 2°39.226 15.3706 4.268371 34.274249 -0.234439
2010-10-12 08:26:40 51°9.713 2°39.197 15.3697 4.267949 34.275036 -0.199615
2010-10-12 08:26:45 51°9.709 2°39.166 15.3687 4.268477 34.281082 -0.269263
2010-10-12 08:26:49 51°9.703 2°39.142 15.3722 4.268055 34.279254 -0.234439
2010-10-12 08:26:55 51°9.698 2°39.105 15.3652 4.267949 34.27896 -0.199615
2010-10-12 08:27:00 51°9.69 2°39.076 15.3598 4.267949 34.27896 -0.199615
2010-10-12 08:27:05 51°9.686 2°39.046 15.3628 4.267633 34.27808 -0.234439
2010-10-12 08:27:09 51°9.68 2°39.022 15.3604 4.267422 34.277492 -0.269263
2010-10-12 08:27:15 51°9.673 2°38.986 15.3576 4.267105 34.277266 -0.199615
2010-10-12 08:27:20 51°9.666 2°38.957 15.3561 4.267316 34.277853 -0.269263
2010-10-12 08:27:24 51°9.662 2°38.932 15.355 4.266894 34.272753 -0.234439
2010-10-12 08:27:30 51°9.654 2°38.896 15.3519 4.266894 34.272753 -0.234439
2010-10-12 08:27:35 51°9.647 2°38.867 15.3619 4.267316 34.277853 -0.199615
2010-10-12 08:27:40 51°9.642 2°38.837 15.3599 4.267105 34.279229 -0.199615
2010-10-12 08:27:44 51°9.637 2°38.813 15.3477 4.266789 34.278348 -0.269263